Wetterdaten: Montag, 06.06.2022
Datum Zeit Temp. Aussen Temp. o. S. Temp +5cm Feuchte Auss Luftdruck Regen Sonnenschein Regendauer Solar Windben Empfang
06.06.2022 00:00 16,5 C 15,6 C 12,8 C 97 % 1013,8 hPa 0,0 l/m 0 min 0 min 0 W/m 3,2 km/h (1 Bft) 97,87 %
06.06.2022 00:02 16,6 C 15,6 C 12,8 C 97 % 1013,7 hPa 0,0 l/m 0 min 0 min 0 W/m 9,7 km/h (2 Bft) 97,06 %
06.06.2022 00:04 16,6 C 16,1 C 12,8 C 97 % 1013,8 hPa 0,0 l/m 0 min 0 min 0 W/m 9,7 km/h (2 Bft) 97,87 %
06.06.2022 00:07 16,6 C 16,1 C 12,8 C 97 % 1013,8 hPa 0,0 l/m 0 min 0 min 0 W/m 6,4 km/h (2 Bft) 100,00 %
06.06.2022 00:08 16,6 C 16,1 C 12,8 C 97 % 1013,8 hPa 0,0 l/m 0 min 0 min 0 W/m 6,4 km/h (2 Bft) 100,00 %
06.06.2022 00:10 16,7 C 16,1 C 12,8 C 97 % 1013,8 hPa 0,0 l/m 0 min 0 min 0 W/m 9,7 km/h (2 Bft) 100,00 %
06.06.2022 00:12 16,7 C 16,1 C 12,8 C 97 % 1013,8 hPa 0,0 l/m 0 min 0 min 0 W/m 6,4 km/h (2 Bft) 100,00 %
06.06.2022 00:14 16,7 C 16,1 C 12,8 C 97 % 1013,9 hPa 0,0 l/m 0 min 0 min 0 W/m 16,1 km/h (3 Bft) 100,00 %
06.06.2022 00:16 16,7 C 16,1 C 12,8 C 97 % 1013,9 hPa 0,0 l/m 0 min 0 min 0 W/m 16,1 km/h (3 Bft) 100,00 %
06.06.2022 00:18 16,7 C 16,1 C 12,8 C 97 % 1014,0 hPa 0,0 l/m 0 min 0 min 0 W/m 12,9 km/h (3 Bft) 97,83 %
06.06.2022 00:20 16,7 C 16,1 C 12,8 C 97 % 1013,9 hPa 0,0 l/m 0 min 0 min 0 W/m 6,4 km/h (2 Bft) 100,00 %
06.06.2022 00:22 16,7 C 16,1 C 12,8 C 97 % 1013,9 hPa 0,0 l/m 0 min 0 min 0 W/m 12,9 km/h (3 Bft) 100,00 %
06.06.2022 00:24 16,7 C 16,1 C 12,8 C 98 % 1013,9 hPa 0,0 l/m 0 min 0 min 0 W/m 12,9 km/h (3 Bft) 95,74 %
06.06.2022 00:26 16,7 C 16,1 C 12,8 C 98 % 1014,0 hPa 0,0 l/m 0 min 0 min 0 W/m 16,1 km/h (3 Bft) 97,87 %
06.06.2022 00:28 16,7 C 16,1 C 12,8 C 98 % 1013,9 hPa 0,0 l/m 0 min 0 min 0 W/m 19,3 km/h (3 Bft) 97,87 %
06.06.2022 00:30 16,7 C 16,1 C 12,8 C 97 % 1014,0 hPa 0,0 l/m 0 min 0 min 0 W/m 6,4 km/h (2 Bft) 97,83 %
06.06.2022 00:32 16,7 C 16,1 C 12,8 C 97 % 1013,9 hPa 0,0 l/m 0 min 0 min 0 W/m 16,1 km/h (3 Bft) 95,74 %
06.06.2022 00:34 16,7 C 16,1 C 12,8 C 97 % 1013,9 hPa 0,0 l/m 0 min 0 min 0 W/m 19,3 km/h (3 Bft) 97,87 %
06.06.2022 00:36 16,7 C 16,1 C 12,8 C 97 % 1014,1 hPa 0,0 l/m 0 min 0 min 0 W/m 16,1 km/h (3 Bft) 97,87 %
06.06.2022 00:38 16,8 C 16,1 C 12,8 C 97 % 1014,1 hPa 0,0 l/m 0 min 0 min 0 W/m 6,4 km/h (2 Bft) 95,74 %
06.06.2022 00:40 16,8 C 16,1 C 12,8 C 97 % 1014,1 hPa 0,0 l/m 0 min 0 min 0 W/m 9,7 km/h (2 Bft) 97,87 %
06.06.2022 00:42 16,7 C 16,1 C 12,8 C 97 % 1014,0 hPa 0,0 l/m 0 min 0 min 0 W/m 25,7 km/h (4 Bft) 97,83 %
06.06.2022 00:44 16,7 C 16,1 C 12,2 C 97 % 1014,1 hPa 0,0 l/m 0 min 0 min 0 W/m 19,3 km/h (3 Bft) 95,74 %
06.06.2022 00:46 16,7 C 16,1 C 12,2 C 97 % 1014,0 hPa 0,0 l/m 0 min 0 min 0 W/m 12,9 km/h (3 Bft) 97,87 %
06.06.2022 00:48 16,6 C 16,1 C 12,2 C 97 % 1014,0 hPa 0,0 l/m 0 min 0 min 0 W/m 16,1 km/h (3 Bft) 97,87 %
06.06.2022 00:50 16,6 C 16,1 C 12,2 C 97 % 1014,0 hPa 0,0 l/m 0 min 0 min 0 W/m 16,1 km/h (3 Bft) 97,87 %
06.06.2022 00:52 16,6 C 16,1 C 12,2 C 97 % 1014,0 hPa 0,0 l/m 0 min 0 min 0 W/m 16,1 km/h (3 Bft) 97,87 %
06.06.2022 00:54 16,6 C 16,1 C 12,2 C 97 % 1014,0 hPa 0,0 l/m 0 min 0 min 0 W/m 16,1 km/h (3 Bft) 95,65 %
06.06.2022 00:56 16,5 C 16,1 C 12,2 C 96 % 1014,0 hPa 0,0 l/m 0 min 0 min 0 W/m 19,3 km/h (3 Bft) 97,87 %
06.06.2022 00:58 16,5 C 15,6 C 12,2 C 96 % 1014,0 hPa 0,0 l/m 0 min 0 min 0 W/m 12,9 km/h (3 Bft) 97,87 %
06.06.2022 01:00 16,4 C 15,6 C 12,2 C 96 % 1014,0 hPa 0,0 l/m 0 min 0 min 0 W/m 25,7 km/h (4 Bft) 97,87 %
06.06.2022 01:02 16,4 C 15,6 C 12,2 C 96 % 1014,0 hPa 0,0 l/m 0 min 0 min 0 W/m 25,7 km/h (4 Bft) 97,87 %
06.06.2022 01:04 16,4 C 15,6 C 12,2 C 96 % 1014,0 hPa 0,0 l/m 0 min 0 min 0 W/m 16,1 km/h (3 Bft) 97,87 %
06.06.2022 01:06 16,4 C 15,6 C 12,2 C 96 % 1014,1 hPa 0,0 l/m 0 min 0 min 0 W/m 16,1 km/h (3 Bft) 97,83 %
06.06.2022 01:08 16,3 C 15,6 C 12,2 C 96 % 1014,1 hPa 0,0 l/m 0 min 0 min 0 W/m 22,5 km/h (4 Bft) 97,87 %
06.06.2022 01:10 16,3 C 15,6 C 12,2 C 96 % 1014,2 hPa 0,0 l/m 0 min 0 min 0 W/m 22,5 km/h (4 Bft) 97,87 %
06.06.2022 01:12 16,3 C 15,6 C 11,7 C 96 % 1014,2 hPa 0,0 l/m 0 min 0 min 0 W/m 25,7 km/h (4 Bft) 95,74 %
06.06.2022 01:14 16,3 C 15,6 C 11,7 C 96 % 1014,2 hPa 0,0 l/m 0 min 0 min 0 W/m 41,8 km/h (6 Bft) 97,87 %
06.06.2022 01:16 16,2 C 15,6 C 11,7 C 96 % 1014,3 hPa 0,0 l/m 0 min 0 min 0 W/m 25,7 km/h (4 Bft) 97,87 %
06.06.2022 01:18 16,2 C 15,6 C 11,7 C 95 % 1014,3 hPa 0,0 l/m 0 min 0 min 0 W/m 25,7 km/h (4 Bft) 100,00 %
06.06.2022 01:20 16,2 C 15,6 C 11,7 C 95 % 1014,3 hPa 0,0 l/m 0 min 0 min 0 W/m 29,0 km/h (5 Bft) 100,00 %
06.06.2022 01:22 16,1 C 15,6 C 11,7 C 95 % 1014,3 hPa 0,0 l/m 0 min 0 min 0 W/m 22,5 km/h (4 Bft) 100,00 %
06.06.2022 01:24 16,1 C 15,6 C 11,7 C 95 % 1014,2 hPa 0,0 l/m 0 min 0 min 0 W/m 19,3 km/h (3 Bft) 100,00 %
06.06.2022 01:26 16,1 C 15,6 C 11,7 C 95 % 1014,3 hPa 0,0 l/m 0 min 0 min 0 W/m 22,5 km/h (4 Bft) 100,00 %
06.06.2022 01:28 16,1 C 15,6 C 11,7 C 94 % 1014,3 hPa 0,0 l/m 0 min 0 min 0 W/m 12,9 km/h (3 Bft) 97,87 %
06.06.2022 01:30 16,1 C 15,6 C 11,7 C 94 % 1014,2 hPa 0,0 l/m 0 min 0 min 0 W/m 9,7 km/h (2 Bft) 97,83 %
06.06.2022 01:32 16,0 C 15,6 C 11,7 C 94 % 1014,3 hPa 0,0 l/m 0 min 0 min 0 W/m 16,1 km/h (3 Bft) 95,74 %
06.06.2022 01:34 16,0 C 15,6 C 11,7 C 94 % 1014,3 hPa 0,0 l/m 0 min 0 min 0 W/m 12,9 km/h (3 Bft) 97,87 %
06.06.2022 01:36 15,9 C 15,6 C 11,7 C 94 % 1014,3 hPa 0,0 l/m 0 min 0 min 0 W/m 25,7 km/h (4 Bft) 95,74 %
06.06.2022 01:38 15,9 C 15,6 C 11,7 C 94 % 1014,2 hPa 0,0 l/m 0 min 0 min 0 W/m 25,7 km/h (4 Bft) 97,87 %
06.06.2022 01:40 15,9 C 15,0 C 11,7 C 93 % 1014,3 hPa 0,0 l/m 0 min 0 min 0 W/m 12,9 km/h (3 Bft) 97,87 %
06.06.2022 01:42 15,8 C 15,0 C 11,7 C 93 % 1014,3 hPa 0,0 l/m 0 min 0 min 0 W/m 22,5 km/h (4 Bft) 97,83 %
06.06.2022 01:44 15,8 C 15,0 C 12,2 C 93 % 1014,4 hPa 0,0 l/m 0 min 0 min 0 W/m 19,3 km/h (3 Bft) 97,87 %
06.06.2022 01:46 15,8 C 15,0 C 11,7 C 93 % 1014,4 hPa 0,0 l/m 0 min 0 min 0 W/m 12,9 km/h (3 Bft) 97,87 %
06.06.2022 01:48 15,8 C 15,0 C 11,7 C 93 % 1014,3 hPa 0,0 l/m 0 min 0 min 0 W/m 12,9 km/h (3 Bft) 97,87 %
06.06.2022 01:50 15,8 C 15,0 C 12,2 C 93 % 1014,3 hPa 0,0 l/m 0 min 0 min 0 W/m 16,1 km/h (3 Bft) 95,74 %
06.06.2022 01:52 15,8 C 15,0 C 11,7 C 93 % 1014,4 hPa 0,0 l/m 0 min 0 min 0 W/m 16,1 km/h (3 Bft) 95,74 %
06.06.2022 01:54 15,8 C 15,0 C 11,7 C 93 % 1014,4 hPa 0,0 l/m 0 min 0 min 0 W/m 19,3 km/h (3 Bft) 95,65 %
06.06.2022 01:56 15,8 C 15,0 C 11,7 C 93 % 1014,5 hPa 0,0 l/m 0 min 0 min 0 W/m 16,1 km/h (3 Bft) 95,74 %
06.06.2022 01:58 15,8 C 15,0 C 11,7 C 93 % 1014,5 hPa 0,0 l/m 0 min 0 min 0 W/m 12,9 km/h (3 Bft) 95,74 %
06.06.2022 02:00 15,7 C 15,0 C 11,7 C 93 % 1014,5 hPa 0,0 l/m 0 min 0 min 0 W/m 16,1 km/h (3 Bft) 97,87 %
06.06.2022 02:02 15,7 C 15,0 C 11,7 C 93 % 1014,4 hPa 0,0 l/m 0 min 0 min 0 W/m 12,9 km/h (3 Bft) 97,87 %
06.06.2022 02:04 15,7 C 15,0 C 11,7 C 93 % 1014,4 hPa 0,0 l/m 0 min 0 min 0 W/m 16,1 km/h (3 Bft) 97,96 %
06.06.2022 02:06 15,7 C 15,0 C 11,7 C 93 % 1014,4 hPa 0,0 l/m 0 min 0 min 0 W/m 16,1 km/h (3 Bft) 96,00 %
06.06.2022 02:08 15,7 C 15,0 C 12,2 C 93 % 1014,4 hPa 0,0 l/m 0 min 0 min 0 W/m 12,9 km/h (3 Bft) 95,65 %
06.06.2022 02:10 15,7 C 15,0 C 12,2 C 93 % 1014,4 hPa 0,0 l/m 0 min 0 min 0 W/m 16,1 km/h (3 Bft) 97,87 %
06.06.2022 02:12 15,7 C 15,0 C 11,7 C 93 % 1014,3 hPa 0,0 l/m 0 min 0 min 0 W/m 12,9 km/h (3 Bft) 97,87 %
06.06.2022 02:14 15,7 C 15,0 C 11,7 C 93 % 1014,3 hPa 0,0 l/m 0 min 0 min 0 W/m 6,4 km/h (2 Bft) 97,87 %
06.06.2022 02:16 15,7 C 15,0 C 11,7 C 93 % 1014,3 hPa 0,0 l/m 0 min 0 min 0 W/m 6,4 km/h (2 Bft) 95,92 %
06.06.2022 02:18 15,7 C 15,0 C 11,7 C 93 % 1014,3 hPa 0,0 l/m 0 min 0 min 0 W/m 19,3 km/h (3 Bft) 97,87 %
06.06.2022 02:20 15,7 C 15,0 C 11,7 C 93 % 1014,3 hPa 0,0 l/m 0 min 0 min 0 W/m 6,4 km/h (2 Bft) 97,87 %
06.06.2022 02:22 15,7 C 15,0 C 11,7 C 93 % 1014,3 hPa 0,0 l/m 0 min 0 min 0 W/m 9,7 km/h (2 Bft) 95,74 %
06.06.2022 02:24 15,7 C 15,0 C 11,7 C 93 % 1014,3 hPa 0,0 l/m 0 min 0 min 0 W/m 9,7 km/h (2 Bft) 97,87 %
06.06.2022 02:26 15,7 C 15,0 C 11,7 C 93 % 1014,3 hPa 0,0 l/m 0 min 0 min 0 W/m 9,7 km/h (2 Bft) 95,74 %
06.06.2022 02:28 15,7 C 15,0 C 12,2 C 93 % 1014,3 hPa 0,0 l/m 0 min 0 min 0 W/m 9,7 km/h (2 Bft) 95,65 %
06.06.2022 02:30 15,7 C 15,0 C 12,2 C 93 % 1014,3 hPa 0,0 l/m 0 min 0 min 0 W/m 12,9 km/h (3 Bft) 97,87 %
06.06.2022 02:32 15,6 C 15,0 C 12,2 C 93 % 1014,3 hPa 0,0 l/m 0 min 0 min 0 W/m 12,9 km/h (3 Bft) 97,87 %
06.06.2022 02:34 15,6 C 15,0 C 11,7 C 93 % 1014,3 hPa 0,0 l/m 0 min 0 min 0 W/m 16,1 km/h (3 Bft) 97,87 %
06.06.2022 02:36 15,6 C 15,0 C 11,7 C 93 % 1014,4 hPa 0,0 l/m 0 min 0 min 0 W/m 16,1 km/h (3 Bft) 97,87 %
06.06.2022 02:38 15,6 C 15,0 C 12,2 C 93 % 1014,3 hPa 0,0 l/m 0 min 0 min 0 W/m 9,7 km/h (2 Bft) 97,83 %
06.06.2022 02:40 15,6 C 15,0 C 11,7 C 93 % 1014,3 hPa 0,0 l/m 0 min 0 min 0 W/m 6,4 km/h (2 Bft) 95,74 %
06.06.2022 02:42 15,6 C 15,0 C 11,7 C 93 % 1014,3 hPa 0,0 l/m 0 min 0 min 0 W/m 6,4 km/h (2 Bft) 100,00 %
06.06.2022 02:44 15,6 C 15,0 C 11,7 C 93 % 1014,4 hPa 0,0 l/m 0 min 0 min 0 W/m 6,4 km/h (2 Bft) 97,87 %
06.06.2022 02:46 15,6 C 15,0 C 11,7 C 93 % 1014,4 hPa 0,0 l/m 0 min 0 min 0 W/m 6,4 km/h (2 Bft) 100,00 %
06.06.2022 02:48 15,6 C 15,0 C 11,7 C 93 % 1014,5 hPa 0,0 l/m 0 min 0 min 0 W/m 6,4 km/h (2 Bft) 97,87 %
06.06.2022 02:50 15,6 C 15,0 C 11,7 C 94 % 1014,5 hPa 0,0 l/m 0 min 0 min 0 W/m 16,1 km/h (3 Bft) 100,00 %
06.06.2022 02:52 15,6 C 15,0 C 11,7 C 94 % 1014,5 hPa 0,0 l/m 0 min 0 min 0 W/m 16,1 km/h (3 Bft) 100,00 %
06.06.2022 02:54 15,6 C 14,4 C 11,7 C 94 % 1014,5 hPa 0,0 l/m 0 min 0 min 0 W/m 6,4 km/h (2 Bft) 100,00 %
06.06.2022 02:56 15,6 C 14,4 C 11,7 C 94 % 1014,4 hPa 0,0 l/m 0 min 0 min 0 W/m 16,1 km/h (3 Bft) 100,00 %
06.06.2022 02:58 15,6 C 14,4 C 11,7 C 94 % 1014,5 hPa 0,0 l/m 0 min 0 min 0 W/m 16,1 km/h (3 Bft) 97,87 %
06.06.2022 03:00 15,6 C 14,4 C 11,7 C 94 % 1014,5 hPa 0,0 l/m 0 min 2 min 0 W/m 6,4 km/h (2 Bft) 100,00 %
06.06.2022 03:02 15,6 C 14,4 C 11,7 C 94 % 1014,5 hPa 0,0 l/m 0 min 2 min 0 W/m 6,4 km/h (2 Bft) 97,83 %
06.06.2022 03:04 15,5 C 14,4 C 11,1 C 94 % 1014,5 hPa 0,0 l/m 0 min 2 min 0 W/m 3,2 km/h (1 Bft) 97,87 %
06.06.2022 03:06 15,5 C 14,4 C 11,1 C 94 % 1014,4 hPa 0,0 l/m 0 min 2 min 0 W/m 6,4 km/h (2 Bft) 97,87 %
06.06.2022 03:08 15,4 C 14,4 C 11,7 C 94 % 1014,4 hPa 0,0 l/m 0 min 0 min 0 W/m 12,9 km/h (3 Bft) 100,00 %
06.06.2022 03:10 15,4 C 14,4 C 11,1 C 95 % 1014,4 hPa 0,0 l/m 0 min 0 min 0 W/m 6,4 km/h (2 Bft) 97,87 %
06.06.2022 03:12 15,4 C 14,4 C 11,1 C 95 % 1014,4 hPa 0,0 l/m 0 min 0 min 0 W/m 6,4 km/h (2 Bft) 97,87 %
06.06.2022 03:14 15,4 C 14,4 C 11,1 C 95 % 1014,4 hPa 0,0 l/m 0 min 0 min 0 W/m 12,9 km/h (3 Bft) 100,00 %
06.06.2022 03:16 15,4 C 14,4 C 11,1 C 95 % 1014,4 hPa 0,0 l/m 0 min 0 min 0 W/m 6,4 km/h (2 Bft) 100,00 %
06.06.2022 03:18 15,3 C 14,4 C 11,1 C 95 % 1014,3 hPa 0,0 l/m 0 min 0 min 0 W/m 6,4 km/h (2 Bft) 97,87 %
06.06.2022 03:20 15,3 C 14,4 C 11,1 C 95 % 1014,3 hPa 0,0 l/m 0 min 0 min 0 W/m 3,2 km/h (1 Bft) 95,74 %
06.06.2022 03:22 15,3 C 14,4 C 11,1 C 95 % 1014,3 hPa 0,0 l/m 0 min 0 min 0 W/m 6,4 km/h (2 Bft) 93,62 %
06.06.2022 03:24 15,3 C 14,4 C 11,1 C 95 % 1014,3 hPa 0,0 l/m 0 min 0 min 0 W/m 3,2 km/h (1 Bft) 95,74 %
06.06.2022 03:26 15,3 C 14,4 C 11,1 C 95 % 1014,3 hPa 0,0 l/m 0 min 0 min 0 W/m 6,4 km/h (2 Bft) 95,65 %
06.06.2022 03:28 15,3 C 14,4 C 11,1 C 95 % 1014,3 hPa 0,0 l/m 0 min 0 min 0 W/m 6,4 km/h (2 Bft) 95,74 %
06.06.2022 03:30 15,3 C 14,4 C 11,1 C 95 % 1014,3 hPa 0,0 l/m 0 min 0 min 0 W/m 3,2 km/h (1 Bft) 95,74 %
06.06.2022 03:32 15,3 C 14,4 C 11,1 C 96 % 1014,4 hPa 0,0 l/m 0 min 0 min 0 W/m 3,2 km/h (1 Bft) 93,62 %
06.06.2022 03:34 15,3 C 14,4 C 11,1 C 96 % 1014,3 hPa 0,0 l/m 0 min 0 min 0 W/m 6,4 km/h (2 Bft) 93,62 %
06.06.2022 03:36 15,2 C 14,4 C 11,1 C 96 % 1014,3 hPa 0,0 l/m 0 min 0 min 0 W/m 6,4 km/h (2 Bft) 93,62 %
06.06.2022 03:38 15,2 C 14,4 C 11,1 C 96 % 1014,3 hPa 0,0 l/m 0 min 0 min 0 W/m 6,4 km/h (2 Bft) 95,65 %
06.06.2022 03:40 15,2 C 14,4 C 11,1 C 96 % 1014,3 hPa 0,0 l/m 0 min 0 min 0 W/m 9,7 km/h (2 Bft) 95,74 %
06.06.2022 03:42 15,2 C 14,4 C 11,1 C 96 % 1014,3 hPa 0,0 l/m 0 min 0 min 0 W/m 3,2 km/h (1 Bft) 95,74 %
06.06.2022 03:44 15,2 C 14,4 C 11,7 C 96 % 1014,3 hPa 0,0 l/m 0 min 0 min 0 W/m 0,0 km/h (0 Bft) 93,62 %
06.06.2022 03:46 15,2 C 14,4 C 11,7 C 96 % 1014,3 hPa 0,0 l/m 0 min 0 min 0 W/m 0,0 km/h (0 Bft) 95,74 %
06.06.2022 03:48 15,2 C 14,4 C 11,1 C 96 % 1014,3 hPa 0,0 l/m 0 min 0 min 0 W/m 0,0 km/h (0 Bft) 95,74 %
06.06.2022 03:50 15,2 C 14,4 C 11,1 C 96 % 1014,3 hPa 0,0 l/m 0 min 0 min 0 W/m 6,4 km/h (2 Bft) 95,65 %
06.06.2022 03:52 15,2 C 14,4 C 11,1 C 96 % 1014,3 hPa 0,0 l/m 0 min 0 min 0 W/m 6,4 km/h (2 Bft) 95,74 %
06.06.2022 03:54 15,2 C 14,4 C 11,1 C 96 % 1014,2 hPa 0,0 l/m 0 min 0 min 0 W/m 3,2 km/h (1 Bft) 97,87 %
06.06.2022 03:56 15,2 C 14,4 C 11,1 C 96 % 1014,2 hPa 0,0 l/m 0 min 0 min 0 W/m 3,2 km/h (1 Bft) 95,74 %
06.06.2022 03:58 15,2 C 14,4 C 11,1 C 96 % 1014,2 hPa 0,0 l/m 0 min 0 min 0 W/m 3,2 km/h (1 Bft) 100,00 %
06.06.2022 04:00 15,2 C 14,4 C 11,1 C 96 % 1014,2 hPa 0,0 l/m 0 min 0 min 0 W/m 3,2 km/h (1 Bft) 93,62 %
06.06.2022 04:02 15,2 C 14,4 C 11,1 C 96 % 1014,2 hPa 0,0 l/m 0 min 0 min 0 W/m 3,2 km/h (1 Bft) 100,00 %
06.06.2022 04:04 15,2 C 14,4 C 11,1 C 97 % 1014,2 hPa 0,0 l/m 0 min 0 min 0 W/m 3,2 km/h (1 Bft) 93,62 %
06.06.2022 04:06 15,2 C 14,4 C 11,1 C 97 % 1014,2 hPa 0,0 l/m 0 min 0 min 0 W/m 3,2 km/h (1 Bft) 100,00 %
06.06.2022 04:08 15,2 C 14,4 C 11,1 C 97 % 1014,1 hPa 0,0 l/m 0 min 0 min 0 W/m 3,2 km/h (1 Bft) 95,74 %
06.06.2022 04:10 15,3 C 14,4 C 11,1 C 97 % 1014,1 hPa 0,0 l/m 0 min 0 min 0 W/m 6,4 km/h (2 Bft) 100,00 %
06.06.2022 04:12 15,3 C 14,4 C 11,7 C 97 % 1014,0 hPa 0,0 l/m 0 min 0 min 0 W/m 12,9 km/h (3 Bft) 95,74 %
06.06.2022 04:14 15,3 C 14,4 C 11,7 C 97 % 1014,0 hPa 0,0 l/m 0 min 0 min 0 W/m 3,2 km/h (1 Bft) 100,00 %
06.06.2022 04:16 15,3 C 14,4 C 11,7 C 97 % 1014,1 hPa 0,0 l/m 0 min 0 min 0 W/m 6,4 km/h (2 Bft) 97,87 %
06.06.2022 04:18 15,3 C 14,4 C 11,7 C 97 % 1014,0 hPa 0,0 l/m 0 min 0 min 0 W/m 3,2 km/h (1 Bft) 100,00 %
06.06.2022 04:20 15,3 C 14,4 C 11,7 C 97 % 1014,0 hPa 0,0 l/m 0 min 0 min 0 W/m 6,4 km/h (2 Bft) 100,00 %
06.06.2022 04:22 15,3 C 14,4 C 11,7 C 97 % 1014,0 hPa 0,0 l/m 0 min 0 min 0 W/m 3,2 km/h (1 Bft) 100,00 %
06.06.2022 04:24 15,2 C 14,4 C 11,7 C 97 % 1014,0 hPa 0,2 l/m 0 min 0 min 0 W/m 6,4 km/h (2 Bft) 100,00 %
06.06.2022 04:26 15,2 C 14,4 C 11,7 C 97 % 1014,1 hPa 0,0 l/m 0 min 0 min 0 W/m 9,7 km/h (2 Bft) 97,83 %
06.06.2022 04:28 15,2 C 14,4 C 11,7 C 97 % 1014,1 hPa 0,0 l/m 0 min 0 min 0 W/m 16,1 km/h (3 Bft) 100,00 %
06.06.2022 04:30 15,2 C 14,4 C 11,7 C 97 % 1014,1 hPa 0,0 l/m 0 min 0 min 0 W/m 16,1 km/h (3 Bft) 100,00 %
06.06.2022 04:32 15,2 C 14,4 C 11,7 C 97 % 1014,1 hPa 0,0 l/m 0 min 0 min 0 W/m 12,9 km/h (3 Bft) 100,00 %
06.06.2022 04:34 15,2 C 14,4 C 11,7 C 97 % 1014,1 hPa 0,0 l/m 0 min 0 min 0 W/m 12,9 km/h (3 Bft) 100,00 %
06.06.2022 04:36 15,2 C 14,4 C 11,7 C 97 % 1014,1 hPa 0,0 l/m 0 min 0 min 0 W/m 19,3 km/h (3 Bft) 100,00 %
06.06.2022 04:38 15,2 C 14,4 C 11,7 C 97 % 1014,2 hPa 0,0 l/m 0 min 0 min 0 W/m 6,4 km/h (2 Bft) 100,00 %
06.06.2022 04:40 15,2 C 14,4 C 11,7 C 97 % 1014,1 hPa 0,0 l/m 0 min 0 min 0 W/m 16,1 km/h (3 Bft) 100,00 %
06.06.2022 04:42 15,2 C 14,4 C 11,7 C 97 % 1014,1 hPa 0,0 l/m 0 min 0 min 0 W/m 6,4 km/h (2 Bft) 97,87 %
06.06.2022 04:44 15,2 C 14,4 C 11,7 C 97 % 1014,1 hPa 0,0 l/m 0 min 0 min 0 W/m 9,7 km/h (2 Bft) 100,00 %
06.06.2022 04:46 15,2 C 14,4 C 11,7 C 97 % 1014,1 hPa 0,0 l/m 0 min 0 min 0 W/m 16,1 km/h (3 Bft) 97,87 %
06.06.2022 04:48 15,2 C 14,4 C 11,7 C 97 % 1014,1 hPa 0,0 l/m 0 min 0 min 0 W/m 12,9 km/h (3 Bft) 97,87 %
06.06.2022 04:50 15,2 C 14,4 C 11,7 C 97 % 1014,1 hPa 0,0 l/m 0 min 0 min 0 W/m 6,4 km/h (2 Bft) 97,83 %
06.06.2022 04:52 15,2 C 14,4 C 11,7 C 97 % 1014,1 hPa 0,0 l/m 0 min 0 min 0 W/m 6,4 km/h (2 Bft) 97,87 %
06.06.2022 04:54 15,2 C 14,4 C 11,7 C 97 % 1014,1 hPa 0,0 l/m 0 min 0 min 0 W/m 12,9 km/h (3 Bft) 97,87 %
06.06.2022 04:56 15,2 C 14,4 C 11,7 C 97 % 1014,1 hPa 0,0 l/m 0 min 0 min 0 W/m 6,4 km/h (2 Bft) 97,87 %
06.06.2022 04:58 15,2 C 14,4 C 11,7 C 97 % 1014,1 hPa 0,0 l/m 0 min 0 min 0 W/m 9,7 km/h (2 Bft) 95,74 %
06.06.2022 05:00 15,1 C 14,4 C 11,7 C 97 % 1014,1 hPa 0,0 l/m 0 min 0 min 0 W/m 12,9 km/h (3 Bft) 97,87 %
06.06.2022 05:02 15,1 C 14,4 C 11,7 C 96 % 1014,1 hPa 0,0 l/m 0 min 0 min 0 W/m 16,1 km/h (3 Bft) 97,83 %
06.06.2022 05:04 15,1 C 14,4 C 11,7 C 96 % 1014,1 hPa 0,0 l/m 0 min 0 min 0 W/m 16,1 km/h (3 Bft) 97,67 %
06.06.2022 05:06 15,1 C 14,4 C 11,7 C 96 % 1014,1 hPa 0,0 l/m 0 min 0 min 0 W/m 22,5 km/h (4 Bft) 97,83 %
06.06.2022 05:08 15,1 C 14,4 C 11,7 C 96 % 1014,1 hPa 0,0 l/m 0 min 0 min 0 W/m 16,1 km/h (3 Bft) 97,87 %
06.06.2022 05:10 15,1 C 14,4 C 11,7 C 96 % 1014,0 hPa 0,0 l/m 0 min 0 min 0 W/m 16,1 km/h (3 Bft) 97,87 %
06.06.2022 05:12 15,1 C 14,4 C 11,7 C 96 % 1014,1 hPa 0,0 l/m 0 min 0 min 0 W/m 12,9 km/h (3 Bft) 97,87 %
06.06.2022 05:14 15,1 C 14,4 C 11,7 C 96 % 1014,1 hPa 0,0 l/m 0 min 0 min 0 W/m 16,1 km/h (3 Bft) 95,74 %
06.06.2022 05:16 15,1 C 14,4 C 11,7 C 96 % 1014,1 hPa 0,0 l/m 0 min 0 min 0 W/m 12,9 km/h (3 Bft) 95,74 %
06.06.2022 05:18 15,1 C 14,4 C 11,7 C 96 % 1014,1 hPa 0,0 l/m 0 min 0 min 0 W/m 12,9 km/h (3 Bft) 93,48 %
06.06.2022 05:20 15,1 C 14,4 C 11,7 C 96 % 1014,2 hPa 0,0 l/m 0 min 0 min 0 W/m 12,9 km/h (3 Bft) 95,74 %
06.06.2022 05:22 15,1 C 14,4 C 11,7 C 96 % 1014,1 hPa 0,0 l/m 0 min 0 min 0 W/m 9,7 km/h (2 Bft) 95,74 %
06.06.2022 05:24 15,1 C 14,4 C 11,7 C 96 % 1014,1 hPa 0,0 l/m 0 min 0 min 0 W/m 9,7 km/h (2 Bft) 95,74 %
06.06.2022 05:26 15,1 C 14,4 C 11,7 C 95 % 1014,1 hPa 0,0 l/m 0 min 0 min 0 W/m 9,7 km/h (2 Bft) 95,74 %
06.06.2022 05:28 15,1 C 14,4 C 11,7 C 95 % 1014,1 hPa 0,0 l/m 0 min 0 min 0 W/m 9,7 km/h (2 Bft) 95,74 %
06.06.2022 05:30 15,1 C 14,4 C 11,7 C 95 % 1014,1 hPa 0,0 l/m 0 min 0 min 0 W/m 16,1 km/h (3 Bft) 95,65 %
06.06.2022 05:32 15,1 C 14,4 C 11,7 C 95 % 1014,1 hPa 0,0 l/m 0 min 0 min 0 W/m 12,9 km/h (3 Bft) 93,62 %
06.06.2022 05:34 15,1 C 14,4 C 11,7 C 95 % 1014,2 hPa 0,0 l/m 0 min 0 min 0 W/m 16,1 km/h (3 Bft) 95,74 %
06.06.2022 05:36 15,1 C 14,4 C 11,7 C 95 % 1014,2 hPa 0,0 l/m 0 min 0 min 2 W/m 12,9 km/h (3 Bft) 93,62 %
06.06.2022 05:38 15,1 C 14,4 C 11,7 C 95 % 1014,2 hPa 0,0 l/m 0 min 0 min 5 W/m 3,2 km/h (1 Bft) 97,87 %
06.06.2022 05:40 15,1 C 14,4 C 11,7 C 95 % 1014,2 hPa 0,0 l/m 0 min 0 min 5 W/m 9,7 km/h (2 Bft) 95,74 %
06.06.2022 05:42 15,1 C 14,4 C 11,7 C 95 % 1014,2 hPa 0,0 l/m 0 min 0 min 7 W/m 12,9 km/h (3 Bft) 97,83 %
06.06.2022 05:44 15,0 C 14,4 C 11,7 C 95 % 1014,2 hPa 0,0 l/m 0 min 0 min 8 W/m 12,9 km/h (3 Bft) 97,87 %
06.06.2022 05:46 15,0 C 14,4 C 11,7 C 95 % 1014,2 hPa 0,0 l/m 0 min 0 min 9 W/m 9,7 km/h (2 Bft) 100,00 %
06.06.2022 05:48 15,0 C 14,4 C 11,7 C 95 % 1014,2 hPa 0,0 l/m 0 min 0 min 10 W/m 12,9 km/h (3 Bft) 97,92 %
06.06.2022 05:50 14,9 C 14,4 C 11,7 C 95 % 1014,2 hPa 0,0 l/m 0 min 0 min 13 W/m 9,7 km/h (2 Bft) 97,87 %
06.06.2022 05:52 14,9 C 14,4 C 11,7 C 94 % 1014,3 hPa 0,0 l/m 0 min 0 min 14 W/m 16,1 km/h (3 Bft) 100,00 %
06.06.2022 05:54 14,9 C 14,4 C 11,7 C 94 % 1014,3 hPa 0,0 l/m 0 min 0 min 13 W/m 12,9 km/h (3 Bft) 100,00 %
06.06.2022 05:56 14,9 C 14,4 C 11,7 C 94 % 1014,3 hPa 0,0 l/m 0 min 0 min 16 W/m 12,9 km/h (3 Bft) 100,00 %
06.06.2022 05:58 14,9 C 14,4 C 11,7 C 94 % 1014,2 hPa 0,0 l/m 0 min 0 min 19 W/m 9,7 km/h (2 Bft) 97,87 %
06.06.2022 06:00 14,9 C 14,4 C 11,7 C 94 % 1014,3 hPa 0,0 l/m 0 min 0 min 23 W/m 12,9 km/h (3 Bft) 97,87 %
06.06.2022 06:02 14,8 C 14,4 C 11,7 C 94 % 1014,3 hPa 0,0 l/m 0 min 0 min 26 W/m 19,3 km/h (3 Bft) 97,87 %
06.06.2022 06:04 14,8 C 14,4 C 11,7 C 94 % 1014,4 hPa 0,0 l/m 0 min 0 min 29 W/m 12,9 km/h (3 Bft) 95,74 %
06.06.2022 06:07 14,8 C 14,4 C 11,7 C 94 % 1014,5 hPa 0,0 l/m 0 min 0 min 33 W/m 16,1 km/h (3 Bft) 97,18 %
06.06.2022 06:08 14,8 C 14,4 C 11,7 C 94 % 1014,5 hPa 0,0 l/m 0 min 0 min 37 W/m 16,1 km/h (3 Bft) 100,00 %
06.06.2022 06:10 14,8 C 14,4 C 11,7 C 94 % 1014,4 hPa 0,0 l/m 0 min 0 min 40 W/m 12,9 km/h (3 Bft) 93,62 %
06.06.2022 06:12 14,8 C 14,4 C 11,7 C 94 % 1014,5 hPa 0,0 l/m 0 min 0 min 40 W/m 16,1 km/h (3 Bft) 97,87 %
06.06.2022 06:14 14,8 C 14,4 C 11,7 C 94 % 1014,5 hPa 0,0 l/m 0 min 0 min 39 W/m 12,9 km/h (3 Bft) 97,87 %
06.06.2022 06:16 14,8 C 14,4 C 11,7 C 94 % 1014,4 hPa 0,0 l/m 0 min 0 min 38 W/m 12,9 km/h (3 Bft) 97,87 %
06.06.2022 06:18 14,8 C 14,4 C 11,7 C 94 % 1014,4 hPa 0,0 l/m 0 min 0 min 40 W/m 16,1 km/h (3 Bft) 97,83 %
06.06.2022 06:20 14,8 C 14,4 C 11,7 C 94 % 1014,4 hPa 0,0 l/m 0 min 0 min 47 W/m 9,7 km/h (2 Bft) 95,74 %
06.06.2022 06:22 14,8 C 14,4 C 11,7 C 94 % 1014,5 hPa 0,0 l/m 0 min 0 min 49 W/m 12,9 km/h (3 Bft) 93,62 %
06.06.2022 06:24 14,8 C 14,4 C 11,7 C 94 % 1014,5 hPa 0,0 l/m 0 min 0 min 48 W/m 12,9 km/h (3 Bft) 97,87 %
06.06.2022 06:26 14,8 C 14,4 C 11,7 C 94 % 1014,5 hPa 0,0 l/m 0 min 0 min 42 W/m 12,9 km/h (3 Bft) 97,87 %
06.06.2022 06:28 14,8 C 14,4 C 11,7 C 94 % 1014,5 hPa 0,0 l/m 0 min 0 min 39 W/m 12,9 km/h (3 Bft) 97,83 %
06.06.2022 06:30 14,8 C 14,4 C 11,7 C 94 % 1014,5 hPa 0,0 l/m 0 min 0 min 37 W/m 12,9 km/h (3 Bft) 97,87 %
06.06.2022 06:32 14,8 C 14,4 C 11,7 C 94 % 1014,6 hPa 0,0 l/m 0 min 0 min 37 W/m 12,9 km/h (3 Bft) 97,87 %
06.06.2022 06:34 14,8 C 14,4 C 11,7 C 94 % 1014,6 hPa 0,0 l/m 0 min 0 min 38 W/m 16,1 km/h (3 Bft) 97,87 %
06.06.2022 06:36 14,8 C 14,4 C 11,7 C 94 % 1014,6 hPa 0,0 l/m 0 min 0 min 41 W/m 9,7 km/h (2 Bft) 97,87 %
06.06.2022 06:38 14,8 C 14,4 C 11,7 C 93 % 1014,6 hPa 0,0 l/m 0 min 0 min 45 W/m 16,1 km/h (3 Bft) 97,87 %
06.06.2022 06:40 14,8 C 14,4 C 11,7 C 93 % 1014,6 hPa 0,0 l/m 0 min 0 min 53 W/m 12,9 km/h (3 Bft) 97,83 %
06.06.2022 06:42 14,8 C 14,4 C 11,7 C 93 % 1014,6 hPa 0,0 l/m 0 min 0 min 54 W/m 16,1 km/h (3 Bft) 97,87 %
06.06.2022 06:44 14,8 C 14,4 C 11,7 C 93 % 1014,6 hPa 0,0 l/m 0 min 0 min 55 W/m 16,1 km/h (3 Bft) 97,87 %
06.06.2022 06:46 14,8 C 14,4 C 11,7 C 93 % 1014,6 hPa 0,0 l/m 0 min 0 min 54 W/m 9,7 km/h (2 Bft) 97,87 %
06.06.2022 06:48 14,8 C 14,4 C 11,7 C 93 % 1014,7 hPa 0,0 l/m 0 min 0 min 52 W/m 12,9 km/h (3 Bft) 97,87 %
06.06.2022 06:50 14,8 C 14,4 C 11,7 C 93 % 1014,7 hPa 0,0 l/m 0 min 0 min 50 W/m 9,7 km/h (2 Bft) 100,00 %
06.06.2022 06:52 14,8 C 14,4 C 11,7 C 93 % 1014,7 hPa 0,0 l/m 0 min 0 min 51 W/m 12,9 km/h (3 Bft) 100,00 %
06.06.2022 06:54 14,8 C 14,4 C 11,7 C 93 % 1014,6 hPa 0,0 l/m 0 min 0 min 52 W/m 9,7 km/h (2 Bft) 100,00 %
06.06.2022 06:56 14,8 C 14,4 C 11,7 C 93 % 1014,6 hPa 0,0 l/m 0 min 0 min 57 W/m 9,7 km/h (2 Bft) 97,87 %
06.06.2022 06:58 14,8 C 14,4 C 11,7 C 93 % 1014,6 hPa 0,0 l/m 0 min 0 min 62 W/m 6,4 km/h (2 Bft) 100,00 %
06.06.2022 07:00 14,8 C 14,4 C 11,7 C 93 % 1014,7 hPa 0,0 l/m 0 min 0 min 58 W/m 9,7 km/h (2 Bft) 97,87 %
06.06.2022 07:02 14,8 C 14,4 C 11,7 C 93 % 1014,7 hPa 0,0 l/m 0 min 0 min 51 W/m 12,9 km/h (3 Bft) 100,00 %
06.06.2022 07:04 14,8 C 14,4 C 11,7 C 93 % 1014,7 hPa 0,0 l/m 0 min 0 min 41 W/m 9,7 km/h (2 Bft) 97,83 %
06.06.2022 07:06 14,8 C 14,4 C 11,7 C 93 % 1014,7 hPa 0,0 l/m 0 min 0 min 33 W/m 12,9 km/h (3 Bft) 95,74 %
06.06.2022 07:08 14,8 C 14,4 C 11,7 C 93 % 1014,7 hPa 0,0 l/m 0 min 0 min 29 W/m 12,9 km/h (3 Bft) 97,87 %
06.06.2022 07:10 14,8 C 13,9 C 11,1 C 93 % 1014,7 hPa 0,0 l/m 0 min 0 min 28 W/m 16,1 km/h (3 Bft) 97,87 %
06.06.2022 07:12 14,7 C 13,9 C 11,1 C 93 % 1014,7 hPa 0,0 l/m 0 min 0 min 32 W/m 16,1 km/h (3 Bft) 97,87 %
06.06.2022 07:14 14,7 C 13,9 C 11,1 C 93 % 1014,8 hPa 0,0 l/m 0 min 0 min 47 W/m 9,7 km/h (2 Bft) 97,87 %
06.06.2022 07:16 14,7 C 13,9 C 11,1 C 93 % 1014,8 hPa 0,0 l/m 0 min 0 min 52 W/m 9,7 km/h (2 Bft) 97,83 %
06.06.2022 07:18 14,7 C 13,9 C 11,1 C 93 % 1014,8 hPa 0,0 l/m 0 min 0 min 48 W/m 9,7 km/h (2 Bft) 97,87 %
06.06.2022 07:20 14,7 C 13,9 C 11,1 C 93 % 1014,8 hPa 0,0 l/m 0 min 0 min 41 W/m 19,3 km/h (3 Bft) 97,87 %
06.06.2022 07:22 14,7 C 14,4 C 11,1 C 93 % 1014,8 hPa 0,0 l/m 0 min 0 min 40 W/m 16,1 km/h (3 Bft) 97,87 %
06.06.2022 07:24 14,7 C 14,4 C 11,1 C 93 % 1014,8 hPa 0,0 l/m 0 min 0 min 40 W/m 16,1 km/h (3 Bft) 97,87 %
06.06.2022 07:26 14,7 C 14,4 C 11,7 C 93 % 1014,7 hPa 0,0 l/m 0 min 0 min 41 W/m 19,3 km/h (3 Bft) 97,87 %
06.06.2022 07:28 14,7 C 14,4 C 11,7 C 93 % 1014,8 hPa 0,0 l/m 0 min 0 min 42 W/m 12,9 km/h (3 Bft) 97,83 %
06.06.2022 07:30 14,7 C 14,4 C 11,7 C 92 % 1014,8 hPa 0,0 l/m 0 min 0 min 42 W/m 16,1 km/h (3 Bft) 97,87 %
06.06.2022 07:32 14,7 C 14,4 C 11,7 C 92 % 1014,8 hPa 0,0 l/m 0 min 0 min 42 W/m 16,1 km/h (3 Bft) 97,87 %
06.06.2022 07:34 14,7 C 14,4 C 11,7 C 92 % 1014,8 hPa 0,0 l/m 0 min 0 min 42 W/m 16,1 km/h (3 Bft) 97,87 %
06.06.2022 07:36 14,7 C 14,4 C 11,7 C 92 % 1014,9 hPa 0,0 l/m 0 min 0 min 44 W/m 12,9 km/h (3 Bft) 97,87 %
06.06.2022 07:38 14,7 C 14,4 C 11,7 C 92 % 1014,8 hPa 0,0 l/m 0 min 0 min 48 W/m 9,7 km/h (2 Bft) 97,87 %
06.06.2022 07:40 14,7 C 14,4 C 11,7 C 91 % 1014,8 hPa 0,0 l/m 0 min 0 min 143 W/m 22,5 km/h (4 Bft) 100,00 %
06.06.2022 07:42 14,8 C 14,4 C 11,7 C 91 % 1014,8 hPa 0,0 l/m 2 min 0 min 265 W/m 12,9 km/h (3 Bft) 97,87 %
06.06.2022 07:44 14,8 C 14,4 C 11,7 C 91 % 1014,9 hPa 0,0 l/m 2 min 0 min 281 W/m 16,1 km/h (3 Bft) 93,62 %
06.06.2022 07:46 14,8 C 14,4 C 11,7 C 91 % 1014,8 hPa 0,0 l/m 2 min 0 min 289 W/m 19,3 km/h (3 Bft) 97,87 %
06.06.2022 07:48 14,8 C 14,4 C 11,7 C 91 % 1014,8 hPa 0,0 l/m 2 min 0 min 289 W/m 12,9 km/h (3 Bft) 97,87 %
06.06.2022 07:50 14,9 C 14,4 C 11,7 C 91 % 1014,8 hPa 0,0 l/m 2 min 0 min 186 W/m 9,7 km/h (2 Bft) 97,87 %
06.06.2022 07:52 14,9 C 14,4 C 11,7 C 90 % 1014,9 hPa 0,0 l/m 0 min 0 min 120 W/m 19,3 km/h (3 Bft) 97,83 %
06.06.2022 07:54 14,9 C 14,4 C 11,7 C 90 % 1014,9 hPa 0,0 l/m 2 min 0 min 188 W/m 12,9 km/h (3 Bft) 95,74 %
06.06.2022 07:56 14,9 C 14,4 C 11,7 C 90 % 1015,0 hPa 0,0 l/m 0 min 0 min 112 W/m 16,1 km/h (3 Bft) 95,74 %
06.06.2022 07:58 14,9 C 14,4 C 11,7 C 90 % 1014,9 hPa 0,0 l/m 2 min 0 min 222 W/m 19,3 km/h (3 Bft) 97,87 %
06.06.2022 08:00 14,9 C 14,4 C 11,7 C 90 % 1015,0 hPa 0,0 l/m 2 min 0 min 324 W/m 16,1 km/h (3 Bft) 97,87 %
06.06.2022 08:02 15,0 C 15,0 C 11,7 C 90 % 1015,0 hPa 0,0 l/m 2 min 0 min 333 W/m 22,5 km/h (4 Bft) 97,87 %
06.06.2022 08:04 15,1 C 15,6 C 11,7 C 90 % 1015,0 hPa 0,0 l/m 2 min 0 min 336 W/m 19,3 km/h (3 Bft) 97,83 %
06.06.2022 08:06 15,1 C 15,6 C 11,7 C 90 % 1015,0 hPa 0,0 l/m 2 min 0 min 332 W/m 6,4 km/h (2 Bft) 97,87 %
06.06.2022 08:08 15,2 C 16,1 C 11,7 C 89 % 1015,0 hPa 0,0 l/m 2 min 0 min 309 W/m 9,7 km/h (2 Bft) 97,87 %
06.06.2022 08:10 15,2 C 16,1 C 11,7 C 89 % 1015,0 hPa 0,0 l/m 0 min 0 min 197 W/m 16,1 km/h (3 Bft) 95,74 %
06.06.2022 08:12 15,2 C 15,6 C 11,7 C 89 % 1015,0 hPa 0,0 l/m 0 min 0 min 52 W/m 19,3 km/h (3 Bft) 97,87 %
06.06.2022 08:14 15,3 C 15,6 C 11,7 C 88 % 1015,0 hPa 0,0 l/m 2 min 0 min 298 W/m 16,1 km/h (3 Bft) 97,87 %
06.06.2022 08:16 15,3 C 16,1 C 12,2 C 88 % 1015,1 hPa 0,0 l/m 2 min 0 min 335 W/m 16,1 km/h (3 Bft) 97,83 %
06.06.2022 08:18 15,4 C 16,7 C 12,2 C 88 % 1015,2 hPa 0,0 l/m 2 min 0 min 426 W/m 16,1 km/h (3 Bft) 97,87 %
06.06.2022 08:20 15,5 C 16,7 C 12,2 C 88 % 1015,2 hPa 0,0 l/m 2 min 0 min 388 W/m 12,9 km/h (3 Bft) 95,74 %
06.06.2022 08:22 15,6 C 16,7 C 12,8 C 87 % 1015,2 hPa 0,0 l/m 2 min 0 min 362 W/m 12,9 km/h (3 Bft) 97,87 %
06.06.2022 08:24 15,6 C 16,7 C 12,8 C 87 % 1015,2 hPa 0,0 l/m 2 min 0 min 443 W/m 19,3 km/h (3 Bft) 97,87 %
06.06.2022 08:26 15,7 C 16,7 C 12,8 C 87 % 1015,2 hPa 0,0 l/m 2 min 0 min 420 W/m 16,1 km/h (3 Bft) 95,74 %
06.06.2022 08:28 15,7 C 16,7 C 12,8 C 86 % 1015,2 hPa 0,0 l/m 2 min 0 min 428 W/m 19,3 km/h (3 Bft) 100,00 %
06.06.2022 08:30 15,8 C 17,2 C 13,3 C 86 % 1015,2 hPa 0,0 l/m 0 min 0 min 220 W/m 19,3 km/h (3 Bft) 100,00 %
06.06.2022 08:32 15,8 C 17,8 C 13,3 C 85 % 1015,2 hPa 0,0 l/m 2 min 0 min 457 W/m 16,1 km/h (3 Bft) 100,00 %
06.06.2022 08:34 15,9 C 17,8 C 13,9 C 85 % 1015,2 hPa 0,0 l/m 2 min 0 min 449 W/m 22,5 km/h (4 Bft) 97,87 %
06.06.2022 08:36 15,9 C 18,3 C 14,4 C 85 % 1015,1 hPa 0,0 l/m 2 min 0 min 437 W/m 19,3 km/h (3 Bft) 100,00 %
06.06.2022 08:38 16,0 C 18,9 C 14,4 C 85 % 1015,2 hPa 0,0 l/m 2 min 0 min 445 W/m 19,3 km/h (3 Bft) 97,87 %
06.06.2022 08:40 16,1 C 18,3 C 14,4 C 84 % 1015,2 hPa 0,0 l/m 2 min 0 min 407 W/m 19,3 km/h (3 Bft) 100,00 %
06.06.2022 08:42 16,1 C 17,8 C 14,4 C 84 % 1015,2 hPa 0,0 l/m 2 min 0 min 248 W/m 25,7 km/h (4 Bft) 97,87 %
06.06.2022 08:44 16,1 C 18,3 C 14,4 C 83 % 1015,2 hPa 0,0 l/m 2 min 0 min 359 W/m 12,9 km/h (3 Bft) 100,00 %
06.06.2022 08:46 16,1 C 18,3 C 14,4 C 83 % 1015,2 hPa 0,0 l/m 2 min 0 min 468 W/m 19,3 km/h (3 Bft) 100,00 %
06.06.2022 08:48 16,2 C 18,9 C 15,0 C 83 % 1015,3 hPa 0,0 l/m 2 min 0 min 475 W/m 29,0 km/h (5 Bft) 100,00 %
06.06.2022 08:50 16,2 C 19,4 C 15,0 C 82 % 1015,3 hPa 0,0 l/m 2 min 0 min 479 W/m 16,1 km/h (3 Bft) 100,00 %
06.06.2022 08:52 16,3 C 19,4 C 15,0 C 82 % 1015,4 hPa 0,0 l/m 2 min 0 min 496 W/m 19,3 km/h (3 Bft) 100,00 %
06.06.2022 08:54 16,3 C 19,4 C 15,0 C 82 % 1015,4 hPa 0,0 l/m 2 min 0 min 497 W/m 19,3 km/h (3 Bft) 100,00 %
06.06.2022 08:56 16,4 C 20,0 C 15,6 C 82 % 1015,4 hPa 0,0 l/m 2 min 0 min 505 W/m 9,7 km/h (2 Bft) 97,87 %
06.06.2022 08:58 16,6 C 20,0 C 15,6 C 81 % 1015,4 hPa 0,0 l/m 2 min 0 min 510 W/m 16,1 km/h (3 Bft) 100,00 %
06.06.2022 09:00 16,7 C 20,0 C 15,6 C 81 % 1015,4 hPa 0,0 l/m 2 min 0 min 517 W/m 6,4 km/h (2 Bft) 97,87 %
06.06.2022 09:02 16,8 C 20,6 C 15,6 C 81 % 1015,3 hPa 0,0 l/m 2 min 0 min 517 W/m 19,3 km/h (3 Bft) 100,00 %
06.06.2022 09:04 16,9 C 21,1 C 15,6 C 81 % 1015,3 hPa 0,0 l/m 2 min 0 min 532 W/m 6,4 km/h (2 Bft) 97,83 %
06.06.2022 09:06 17,0 C 21,1 C 15,6 C 79 % 1015,3 hPa 0,0 l/m 2 min 0 min 537 W/m 29,0 km/h (5 Bft) 97,87 %
06.06.2022 09:08 17,0 C 21,7 C 16,1 C 78 % 1015,3 hPa 0,0 l/m 2 min 0 min 538 W/m 22,5 km/h (4 Bft) 100,00 %
06.06.2022 09:10 17,1 C 22,8 C 16,1 C 79 % 1015,3 hPa 0,0 l/m 2 min 0 min 541 W/m 12,9 km/h (3 Bft) 97,87 %
06.06.2022 09:12 17,2 C 22,2 C 16,1 C 78 % 1015,3 hPa 0,0 l/m 2 min 0 min 546 W/m 19,3 km/h (3 Bft) 97,87 %
06.06.2022 09:14 17,2 C 21,7 C 16,7 C 77 % 1015,3 hPa 0,0 l/m 2 min 0 min 549 W/m 35,4 km/h (5 Bft) 97,78 %
06.06.2022 09:16 17,2 C 21,7 C 16,7 C 76 % 1015,4 hPa 0,0 l/m 2 min 0 min 555 W/m 12,9 km/h (3 Bft) 97,87 %
06.06.2022 09:18 17,2 C 22,2 C 16,7 C 76 % 1015,3 hPa 0,0 l/m 2 min 0 min 557 W/m 16,1 km/h (3 Bft) 97,87 %
06.06.2022 09:20 17,3 C 22,2 C 16,7 C 77 % 1015,4 hPa 0,0 l/m 2 min 0 min 564 W/m 16,1 km/h (3 Bft) 95,74 %
06.06.2022 09:22 17,3 C 22,2 C 16,7 C 76 % 1015,4 hPa 0,0 l/m 2 min 0 min 571 W/m 19,3 km/h (3 Bft) 95,74 %
06.06.2022 09:24 17,3 C 22,2 C 16,7 C 76 % 1015,4 hPa 0,0 l/m 2 min 0 min 575 W/m 22,5 km/h (4 Bft) 97,87 %
06.06.2022 09:26 17,3 C 22,2 C 16,7 C 77 % 1015,4 hPa 0,0 l/m 2 min 0 min 580 W/m 16,1 km/h (3 Bft) 97,83 %
06.06.2022 09:28 17,4 C 22,8 C 16,7 C 76 % 1015,3 hPa 0,0 l/m 2 min 0 min 586 W/m 12,9 km/h (3 Bft) 97,87 %
06.06.2022 09:30 17,6 C 23,3 C 17,2 C 77 % 1015,3 hPa 0,0 l/m 2 min 0 min 590 W/m 9,7 km/h (2 Bft) 95,74 %
06.06.2022 09:32 17,7 C 23,3 C 17,2 C 77 % 1015,3 hPa 0,0 l/m 2 min 0 min 606 W/m 19,3 km/h (3 Bft) 95,74 %
06.06.2022 09:34 17,7 C 22,2 C 17,2 C 74 % 1015,3 hPa 0,0 l/m 2 min 0 min 609 W/m 29,0 km/h (5 Bft) 97,87 %
06.06.2022 09:36 17,7 C 21,7 C 16,7 C 72 % 1015,3 hPa 0,0 l/m 2 min 0 min 609 W/m 51,5 km/h (7 Bft) 97,87 %
06.06.2022 09:38 17,6 C 22,2 C 17,2 C 73 % 1015,4 hPa 0,0 l/m 2 min 0 min 615 W/m 16,1 km/h (3 Bft) 95,74 %
06.06.2022 09:40 17,7 C 21,7 C 17,2 C 73 % 1015,3 hPa 0,0 l/m 2 min 0 min 619 W/m 16,1 km/h (3 Bft) 95,65 %
06.06.2022 09:42 17,8 C 22,2 C 17,2 C 73 % 1015,2 hPa 0,0 l/m 2 min 0 min 624 W/m 12,9 km/h (3 Bft) 95,74 %
06.06.2022 09:44 17,8 C 22,2 C 17,8 C 73 % 1015,3 hPa 0,0 l/m 2 min 0 min 631 W/m 16,1 km/h (3 Bft) 93,62 %
06.06.2022 09:46 17,8 C 22,2 C 17,8 C 73 % 1015,3 hPa 0,0 l/m 2 min 0 min 633 W/m 19,3 km/h (3 Bft) 97,87 %
06.06.2022 09:48 17,8 C 21,7 C 17,8 C 72 % 1015,2 hPa 0,0 l/m 2 min 0 min 638 W/m 19,3 km/h (3 Bft) 97,87 %
06.06.2022 09:50 17,8 C 21,1 C 17,8 C 72 % 1015,2 hPa 0,0 l/m 2 min 0 min 646 W/m 25,7 km/h (4 Bft) 97,83 %
06.06.2022 09:52 17,9 C 21,1 C 17,8 C 72 % 1015,3 hPa 0,0 l/m 2 min 0 min 649 W/m 22,5 km/h (4 Bft) 97,87 %
06.06.2022 09:54 17,9 C 21,1 C 17,8 C 72 % 1015,2 hPa 0,0 l/m 2 min 0 min 657 W/m 19,3 km/h (3 Bft) 97,87 %
06.06.2022 09:56 18,1 C 21,1 C 17,8 C 71 % 1015,2 hPa 0,0 l/m 2 min 0 min 677 W/m 16,1 km/h (3 Bft) 97,87 %
06.06.2022 09:58 18,2 C 21,7 C 17,8 C 71 % 1015,2 hPa 0,0 l/m 2 min 0 min 665 W/m 19,3 km/h (3 Bft) 95,74 %
06.06.2022 10:00 18,2 C 22,2 C 18,3 C 72 % 1015,2 hPa 0,0 l/m 2 min 0 min 668 W/m 12,9 km/h (3 Bft) 97,87 %
06.06.2022 10:02 18,3 C 22,8 C 18,9 C 73 % 1015,2 hPa 0,0 l/m 2 min 0 min 680 W/m 16,1 km/h (3 Bft) 97,83 %
06.06.2022 10:04 18,5 C 22,8 C 18,9 C 71 % 1015,2 hPa 0,0 l/m 2 min 0 min 688 W/m 16,1 km/h (3 Bft) 97,87 %
06.06.2022 10:06 18,6 C 22,8 C 19,4 C 71 % 1015,2 hPa 0,0 l/m 2 min 0 min 698 W/m 9,7 km/h (2 Bft) 97,87 %
06.06.2022 10:08 18,7 C 22,2 C 19,4 C 71 % 1015,2 hPa 0,0 l/m 2 min 0 min 713 W/m 32,2 km/h (5 Bft) 97,87 %
06.06.2022 10:10 18,7 C 21,7 C 18,9 C 69 % 1015,3 hPa 0,0 l/m 2 min 0 min 729 W/m 32,2 km/h (5 Bft) 95,74 %
06.06.2022 10:12 18,7 C 21,1 C 19,4 C 69 % 1015,3 hPa 0,0 l/m 2 min 0 min 751 W/m 35,4 km/h (5 Bft) 97,87 %
06.06.2022 10:14 18,7 C 20,6 C 18,9 C 68 % 1015,3 hPa 0,0 l/m 2 min 0 min 802 W/m 54,7 km/h (7 Bft) 95,65 %
06.06.2022 10:16 18,6 C 20,0 C 17,8 C 69 % 1015,3 hPa 0,0 l/m 2 min 0 min 849 W/m 22,5 km/h (4 Bft) 95,74 %
06.06.2022 10:18 18,5 C 18,9 C 17,2 C 69 % 1015,3 hPa 0,0 l/m 0 min 0 min 291 W/m 16,1 km/h (3 Bft) 95,74 %
06.06.2022 10:20 18,4 C 18,9 C 16,7 C 70 % 1015,3 hPa 0,0 l/m 0 min 0 min 308 W/m 16,1 km/h (3 Bft) 95,74 %
06.06.2022 10:22 18,3 C 18,9 C 16,7 C 70 % 1015,3 hPa 0,0 l/m 0 min 0 min 294 W/m 16,1 km/h (3 Bft) 95,74 %
06.06.2022 10:24 18,3 C 18,9 C 16,7 C 71 % 1015,3 hPa 0,0 l/m 0 min 0 min 349 W/m 16,1 km/h (3 Bft) 95,74 %
06.06.2022 10:26 18,3 C 18,9 C 16,7 C 71 % 1015,2 hPa 0,0 l/m 2 min 0 min 761 W/m 12,9 km/h (3 Bft) 95,65 %
06.06.2022 10:28 18,4 C 18,9 C 16,1 C 72 % 1015,2 hPa 0,0 l/m 0 min 0 min 321 W/m 12,9 km/h (3 Bft) 95,74 %
06.06.2022 10:30 18,3 C 18,9 C 16,1 C 72 % 1015,3 hPa 0,0 l/m 0 min 0 min 246 W/m 16,1 km/h (3 Bft) 93,62 %
06.06.2022 10:32 18,3 C 18,9 C 16,7 C 71 % 1015,3 hPa 0,0 l/m 2 min 0 min 455 W/m 32,2 km/h (5 Bft) 95,74 %
06.06.2022 10:34 18,2 C 18,3 C 16,1 C 70 % 1015,2 hPa 0,0 l/m 0 min 0 min 300 W/m 32,2 km/h (5 Bft) 95,74 %
06.06.2022 10:36 18,1 C 18,3 C 15,6 C 71 % 1015,2 hPa 0,0 l/m 0 min 0 min 266 W/m 16,1 km/h (3 Bft) 95,74 %
06.06.2022 10:38 18,1 C 17,8 C 15,6 C 71 % 1015,3 hPa 0,0 l/m 0 min 0 min 181 W/m 19,3 km/h (3 Bft) 95,65 %
06.06.2022 10:40 18,0 C 17,8 C 15,6 C 71 % 1015,3 hPa 0,0 l/m 0 min 0 min 320 W/m 16,1 km/h (3 Bft) 95,74 %
06.06.2022 10:42 17,9 C 18,3 C 16,1 C 71 % 1015,3 hPa 0,0 l/m 0 min 0 min 300 W/m 16,1 km/h (3 Bft) 93,62 %
06.06.2022 10:44 18,0 C 18,3 C 16,1 C 72 % 1015,3 hPa 0,0 l/m 0 min 0 min 256 W/m 16,1 km/h (3 Bft) 93,62 %
06.06.2022 10:46 18,1 C 18,3 C 16,7 C 72 % 1015,3 hPa 0,0 l/m 0 min 0 min 214 W/m 16,1 km/h (3 Bft) 91,49 %
06.06.2022 10:48 18,1 C 18,3 C 16,1 C 72 % 1015,3 hPa 0,0 l/m 0 min 0 min 168 W/m 6,4 km/h (2 Bft) 95,74 %
06.06.2022 10:50 18,1 C 18,3 C 15,6 C 72 % 1015,3 hPa 0,0 l/m 0 min 0 min 200 W/m 12,9 km/h (3 Bft) 95,65 %
06.06.2022 10:52 18,1 C 18,9 C 16,1 C 73 % 1015,3 hPa 0,0 l/m 2 min 0 min 500 W/m 19,3 km/h (3 Bft) 95,74 %
06.06.2022 10:54 18,2 C 18,9 C 16,1 C 72 % 1015,4 hPa 0,0 l/m 2 min 0 min 573 W/m 12,9 km/h (3 Bft) 95,74 %
06.06.2022 10:56 18,3 C 19,4 C 16,7 C 72 % 1015,3 hPa 0,0 l/m 2 min 0 min 717 W/m 19,3 km/h (3 Bft) 97,87 %
06.06.2022 10:58 18,4 C 20,0 C 16,7 C 72 % 1015,2 hPa 0,0 l/m 2 min 0 min 925 W/m 16,1 km/h (3 Bft) 97,87 %
06.06.2022 11:00 18,6 C 20,0 C 16,7 C 72 % 1015,3 hPa 0,0 l/m 0 min 0 min 358 W/m 16,1 km/h (3 Bft) 97,87 %
06.06.2022 11:02 18,6 C 20,0 C 16,7 C 71 % 1015,3 hPa 0,0 l/m 2 min 0 min 452 W/m 19,3 km/h (3 Bft) 93,48 %
06.06.2022 11:04 18,6 C 20,6 C 16,7 C 70 % 1015,3 hPa 0,0 l/m 2 min 0 min 840 W/m 25,7 km/h (4 Bft) 97,87 %
06.06.2022 11:06 18,7 C 21,1 C 16,7 C 68 % 1015,4 hPa 0,0 l/m 2 min 0 min 759 W/m 32,2 km/h (5 Bft) 95,74 %
06.06.2022 11:08 18,8 C 20,0 C 16,7 C 67 % 1015,4 hPa 0,0 l/m 2 min 0 min 901 W/m 32,2 km/h (5 Bft) 100,00 %
06.06.2022 11:10 18,7 C 19,4 C 16,7 C 67 % 1015,4 hPa 0,0 l/m 2 min 0 min 426 W/m 35,4 km/h (5 Bft) 97,87 %
06.06.2022 11:12 18,7 C 19,4 C 16,1 C 67 % 1015,4 hPa 0,0 l/m 2 min 0 min 485 W/m 25,7 km/h (4 Bft) 97,87 %
06.06.2022 11:14 18,7 C 19,4 C 16,7 C 69 % 1015,4 hPa 0,0 l/m 2 min 0 min 492 W/m 16,1 km/h (3 Bft) 97,83 %
06.06.2022 11:16 18,8 C 20,0 C 17,2 C 69 % 1015,4 hPa 0,0 l/m 2 min 0 min 460 W/m 22,5 km/h (4 Bft) 97,87 %
06.06.2022 11:18 18,9 C 20,0 C 17,2 C 68 % 1015,3 hPa 0,0 l/m 2 min 0 min 527 W/m 22,5 km/h (4 Bft) 97,87 %
06.06.2022 11:20 18,9 C 19,4 C 16,7 C 67 % 1015,3 hPa 0,0 l/m 2 min 0 min 419 W/m 25,7 km/h (4 Bft) 97,87 %
06.06.2022 11:22 18,9 C 19,4 C 16,7 C 68 % 1015,3 hPa 0,0 l/m 0 min 0 min 358 W/m 16,1 km/h (3 Bft) 97,87 %
06.06.2022 11:24 18,9 C 20,0 C 16,7 C 68 % 1015,3 hPa 0,0 l/m 2 min 0 min 660 W/m 35,4 km/h (5 Bft) 97,87 %
06.06.2022 11:26 18,9 C 20,0 C 16,7 C 67 % 1015,4 hPa 0,0 l/m 2 min 0 min 803 W/m 29,0 km/h (5 Bft) 97,83 %
06.06.2022 11:28 18,9 C 19,4 C 16,7 C 68 % 1015,3 hPa 0,0 l/m 0 min 0 min 375 W/m 22,5 km/h (4 Bft) 97,87 %
06.06.2022 11:30 18,9 C 19,4 C 16,1 C 68 % 1015,3 hPa 0,0 l/m 0 min 0 min 325 W/m 16,1 km/h (3 Bft) 97,87 %
06.06.2022 11:32 18,9 C 18,9 C 16,1 C 67 % 1015,4 hPa 0,0 l/m 0 min 0 min 303 W/m 16,1 km/h (3 Bft) 97,87 %
06.06.2022 11:34 18,8 C 18,9 C 15,6 C 67 % 1015,4 hPa 0,0 l/m 0 min 0 min 359 W/m 29,0 km/h (5 Bft) 97,87 %
06.06.2022 11:36 18,8 C 18,9 C 16,1 C 67 % 1015,3 hPa 0,0 l/m 0 min 0 min 356 W/m 12,9 km/h (3 Bft) 93,62 %
06.06.2022 11:38 18,8 C 19,4 C 16,1 C 69 % 1015,4 hPa 0,0 l/m 0 min 0 min 328 W/m 12,9 km/h (3 Bft) 97,83 %
06.06.2022 11:40 18,8 C 18,9 C 15,6 C 68 % 1015,4 hPa 0,0 l/m 0 min 0 min 316 W/m 29,0 km/h (5 Bft) 97,87 %
06.06.2022 11:42 18,7 C 18,9 C 15,6 C 68 % 1015,3 hPa 0,0 l/m 0 min 0 min 332 W/m 12,9 km/h (3 Bft) 97,87 %
06.06.2022 11:44 18,7 C 18,9 C 15,6 C 69 % 1015,3 hPa 0,0 l/m 0 min 0 min 348 W/m 16,1 km/h (3 Bft) 97,87 %
06.06.2022 11:46 18,7 C 18,9 C 15,6 C 70 % 1015,3 hPa 0,0 l/m 0 min 0 min 325 W/m 9,7 km/h (2 Bft) 97,87 %
06.06.2022 11:48 18,7 C 18,9 C 15,6 C 70 % 1015,4 hPa 0,0 l/m 0 min 0 min 331 W/m 12,9 km/h (3 Bft) 100,00 %
06.06.2022 11:50 18,7 C 18,9 C 15,6 C 68 % 1015,3 hPa 0,0 l/m 0 min 0 min 293 W/m 16,1 km/h (3 Bft) 100,00 %
06.06.2022 11:52 18,7 C 18,9 C 15,6 C 67 % 1015,3 hPa 0,0 l/m 0 min 0 min 238 W/m 19,3 km/h (3 Bft) 100,00 %
06.06.2022 11:54 18,6 C 18,3 C 15,0 C 67 % 1015,3 hPa 0,0 l/m 0 min 0 min 214 W/m 19,3 km/h (3 Bft) 100,00 %
06.06.2022 11:56 18,6 C 18,3 C 15,0 C 67 % 1015,3 hPa 0,0 l/m 0 min 0 min 262 W/m 22,5 km/h (4 Bft) 100,00 %
06.06.2022 11:58 18,4 C 18,3 C 15,0 C 67 % 1015,3 hPa 0,0 l/m 0 min 0 min 309 W/m 16,1 km/h (3 Bft) 100,00 %
06.06.2022 12:00 18,3 C 18,3 C 15,0 C 68 % 1015,3 hPa 0,0 l/m 0 min 0 min 310 W/m 12,9 km/h (3 Bft) 100,00 %
06.06.2022 12:02 18,4 C 18,3 C 15,0 C 68 % 1015,2 hPa 0,0 l/m 0 min 0 min 313 W/m 12,9 km/h (3 Bft) 100,00 %
06.06.2022 12:04 18,4 C 18,9 C 15,6 C 68 % 1015,1 hPa 0,0 l/m 0 min 0 min 359 W/m 16,1 km/h (3 Bft) 100,00 %
06.06.2022 12:07 18,5 C 19,4 C 16,1 C 69 % 1015,1 hPa 0,0 l/m 3 min 0 min 1025 W/m 19,3 km/h (3 Bft) 100,00 %
06.06.2022 12:08 18,6 C 20,0 C 16,7 C 70 % 1015,1 hPa 0,0 l/m 1 min 0 min 1005 W/m 19,3 km/h (3 Bft) 100,00 %
06.06.2022 12:10 18,8 C 20,6 C 17,8 C 71 % 1015,0 hPa 0,0 l/m 2 min 0 min 1005 W/m 19,3 km/h (3 Bft) 100,00 %
06.06.2022 12:12 19,0 C 21,1 C 20,0 C 69 % 1015,0 hPa 0,0 l/m 2 min 0 min 919 W/m 19,3 km/h (3 Bft) 100,00 %
06.06.2022 12:14 19,2 C 21,1 C 20,0 C 68 % 1015,0 hPa 0,0 l/m 2 min 0 min 817 W/m 19,3 km/h (3 Bft) 99,57 %
06.06.2022 12:16 19,4 C 21,1 C 21,1 C 68 % 1014,9 hPa 0,0 l/m 0 min 0 min 395 W/m 22,5 km/h (4 Bft) 100,00 %
06.06.2022 12:18 19,6 C 21,7 C 22,8 C 67 % 1014,9 hPa 0,0 l/m 2 min 0 min 1120 W/m 22,5 km/h (4 Bft) 100,00 %
06.06.2022 12:20 19,7 C 22,2 C 23,3 C 66 % 1015,0 hPa 0,0 l/m 2 min 0 min 1071 W/m 29,0 km/h (5 Bft) 100,00 %
06.06.2022 12:22 19,8 C 21,7 C 23,9 C 65 % 1014,9 hPa 0,0 l/m 2 min 0 min 1021 W/m 38,6 km/h (5 Bft) 100,00 %
06.06.2022 12:24 19,9 C 21,7 C 23,9 C 64 % 1014,8 hPa 0,0 l/m 2 min 0 min 1024 W/m 25,7 km/h (4 Bft) 100,00 %
06.06.2022 12:26 20,0 C 21,7 C 24,4 C 65 % 1014,8 hPa 0,0 l/m 2 min 0 min 988 W/m 29,0 km/h (5 Bft) 100,00 %
06.06.2022 12:28 20,1 C 21,7 C 22,8 C 64 % 1014,9 hPa 0,0 l/m 2 min 0 min 988 W/m 29,0 km/h (5 Bft) 100,00 %
06.06.2022 12:30 20,1 C 22,2 C 23,9 C 65 % 1014,9 hPa 0,0 l/m 2 min 0 min 1128 W/m 19,3 km/h (3 Bft) 100,00 %
06.06.2022 12:32 20,3 C 21,7 C 22,8 C 64 % 1014,9 hPa 0,0 l/m 2 min 0 min 1172 W/m 41,8 km/h (6 Bft) 100,00 %
06.06.2022 12:34 20,2 C 21,1 C 21,7 C 63 % 1014,9 hPa 0,0 l/m 2 min 0 min 1172 W/m 35,4 km/h (5 Bft) 100,00 %
06.06.2022 12:36 20,2 C 21,1 C 20,6 C 63 % 1014,8 hPa 0,0 l/m 2 min 0 min 908 W/m 32,2 km/h (5 Bft) 100,00 %
06.06.2022 12:38 20,2 C 20,6 C 19,4 C 63 % 1014,9 hPa 0,0 l/m 0 min 0 min 273 W/m 16,1 km/h (3 Bft) 100,00 %
06.06.2022 12:40 20,2 C 20,6 C 18,3 C 64 % 1014,9 hPa 0,0 l/m 0 min 0 min 277 W/m 25,7 km/h (4 Bft) 100,00 %
06.06.2022 12:42 20,2 C 20,6 C 18,3 C 64 % 1014,8 hPa 0,0 l/m 0 min 0 min 366 W/m 22,5 km/h (4 Bft) 97,87 %
06.06.2022 12:44 20,1 C 20,0 C 17,8 C 64 % 1014,7 hPa 0,0 l/m 0 min 0 min 340 W/m 25,7 km/h (4 Bft) 97,87 %
06.06.2022 12:46 19,9 C 20,0 C 17,2 C 64 % 1014,8 hPa 0,0 l/m 0 min 0 min 239 W/m 25,7 km/h (4 Bft) 97,87 %
06.06.2022 12:48 19,9 C 19,4 C 16,7 C 64 % 1014,8 hPa 0,0 l/m 0 min 0 min 150 W/m 16,1 km/h (3 Bft) 95,65 %
06.06.2022 12:50 19,8 C 18,9 C 16,7 C 65 % 1014,9 hPa 0,0 l/m 0 min 0 min 125 W/m 16,1 km/h (3 Bft) 97,87 %
06.06.2022 12:52 19,6 C 18,3 C 16,1 C 66 % 1015,2 hPa 0,0 l/m 0 min 0 min 102 W/m 19,3 km/h (3 Bft) 97,87 %
06.06.2022 12:54 19,1 C 17,2 C 13,9 C 73 % 1015,2 hPa 0,2 l/m 0 min 2 min 71 W/m 22,5 km/h (4 Bft) 97,87 %
06.06.2022 12:56 18,2 C 14,4 C 11,7 C 75 % 1015,2 hPa 0,4 l/m 0 min 2 min 62 W/m 19,3 km/h (3 Bft) 97,87 %
06.06.2022 12:58 17,6 C 13,9 C 10,6 C 77 % 1015,2 hPa 0,2 l/m 0 min 2 min 122 W/m 16,1 km/h (3 Bft) 97,87 %
06.06.2022 13:00 17,1 C 13,9 C 10,6 C 80 % 1015,1 hPa 0,0 l/m 0 min 2 min 200 W/m 12,9 km/h (3 Bft) 97,83 %
06.06.2022 13:02 16,6 C 13,9 C 11,1 C 81 % 1015,1 hPa 0,0 l/m 0 min 2 min 247 W/m 19,3 km/h (3 Bft) 97,87 %
06.06.2022 13:04 16,3 C 14,4 C 11,1 C 83 % 1015,1 hPa 0,0 l/m 0 min 0 min 221 W/m 12,9 km/h (3 Bft) 93,62 %
06.06.2022 13:06 16,1 C 15,0 C 10,6 C 83 % 1015,0 hPa 0,0 l/m 0 min 0 min 238 W/m 22,5 km/h (4 Bft) 97,87 %
06.06.2022 13:08 16,1 C 15,6 C 11,1 C 84 % 1015,0 hPa 0,0 l/m 0 min 0 min 331 W/m 12,9 km/h (3 Bft) 97,87 %
06.06.2022 13:10 16,1 C 15,6 C 11,7 C 85 % 1015,0 hPa 0,0 l/m 0 min 0 min 306 W/m 16,1 km/h (3 Bft) 100,00 %
06.06.2022 13:14 16,2 C 16,1 C 11,7 C 85 % 1015,0 hPa 0,0 l/m 0 min 0 min 309 W/m 9,7 km/h (2 Bft) 100,00 %
06.06.2022 13:16 16,4 C 16,7 C 11,7 C 86 % 1015,0 hPa 0,0 l/m 0 min 0 min 308 W/m 19,3 km/h (3 Bft) 97,62 %
06.06.2022 13:18 16,6 C 17,2 C 11,7 C 85 % 1015,0 hPa 0,0 l/m 2 min 0 min 942 W/m 19,3 km/h (3 Bft) 100,00 %
06.06.2022 13:20 16,7 C 17,2 C 11,7 C 84 % 1015,0 hPa 0,0 l/m 2 min 0 min 721 W/m 19,3 km/h (3 Bft) 97,87 %
06.06.2022 13:22 16,8 C 17,8 C 11,7 C 83 % 1015,0 hPa 0,0 l/m 0 min 0 min 434 W/m 12,9 km/h (3 Bft) 95,65 %
06.06.2022 13:24 17,0 C 17,8 C 11,7 C 83 % 1015,1 hPa 0,0 l/m 0 min 0 min 452 W/m 19,3 km/h (3 Bft) 91,49 %
06.06.2022 13:26 17,2 C 17,8 C 11,7 C 81 % 1015,0 hPa 0,0 l/m 0 min 0 min 423 W/m 12,9 km/h (3 Bft) 93,33 %
06.06.2022 13:28 17,3 C 18,3 C 11,7 C 81 % 1015,0 hPa 0,0 l/m 0 min 0 min 449 W/m 19,3 km/h (3 Bft) 95,74 %
06.06.2022 13:30 17,4 C 18,3 C 11,7 C 80 % 1015,0 hPa 0,0 l/m 0 min 0 min 414 W/m 12,9 km/h (3 Bft) 97,87 %
06.06.2022 13:32 17,4 C 18,3 C 13,9 C 78 % 1015,0 hPa 0,0 l/m 0 min 0 min 404 W/m 16,1 km/h (3 Bft) 97,87 %
06.06.2022 13:34 17,6 C 18,9 C 15,0 C 79 % 1014,9 hPa 0,0 l/m 2 min 0 min 500 W/m 12,9 km/h (3 Bft) 95,65 %
06.06.2022 13:36 17,8 C 19,4 C 17,2 C 78 % 1014,9 hPa 0,0 l/m 2 min 0 min 548 W/m 16,1 km/h (3 Bft) 96,61 %
06.06.2022 13:38 18,1 C 20,6 C 18,9 C 78 % 1014,9 hPa 0,0 l/m 2 min 0 min 1034 W/m 22,5 km/h (4 Bft) 97,14 %
06.06.2022 13:40 18,3 C 20,6 C 20,6 C 78 % 1014,9 hPa 0,0 l/m 2 min 0 min 1007 W/m 16,1 km/h (3 Bft) 97,87 %
06.06.2022 13:42 18,6 C 21,1 C 21,7 C 77 % 1014,9 hPa 0,0 l/m 2 min 0 min 953 W/m 12,9 km/h (3 Bft) 95,74 %
06.06.2022 13:44 18,8 C 21,7 C 23,3 C 75 % 1014,9 hPa 0,0 l/m 2 min 0 min 946 W/m 22,5 km/h (4 Bft) 95,74 %
06.06.2022 13:46 19,1 C 22,2 C 24,4 C 74 % 1014,8 hPa 0,0 l/m 2 min 0 min 944 W/m 12,9 km/h (3 Bft) 97,83 %
06.06.2022 13:48 19,2 C 22,2 C 24,4 C 72 % 1014,8 hPa 0,0 l/m 2 min 0 min 943 W/m 19,3 km/h (3 Bft) 97,87 %
06.06.2022 13:50 19,3 C 21,7 C 23,9 C 72 % 1014,8 hPa 0,0 l/m 2 min 0 min 946 W/m 16,1 km/h (3 Bft) 100,00 %
06.06.2022 13:52 19,5 C 22,2 C 23,3 C 72 % 1014,8 hPa 0,0 l/m 2 min 0 min 947 W/m 16,1 km/h (3 Bft) 97,87 %
06.06.2022 13:54 19,7 C 22,2 C 22,2 C 69 % 1014,8 hPa 0,0 l/m 2 min 0 min 952 W/m 22,5 km/h (4 Bft) 97,87 %
06.06.2022 13:56 19,8 C 22,2 C 21,1 C 68 % 1014,7 hPa 0,0 l/m 2 min 0 min 954 W/m 29,0 km/h (5 Bft) 95,74 %
06.06.2022 13:58 19,9 C 21,7 C 20,0 C 70 % 1014,6 hPa 0,0 l/m 2 min 0 min 963 W/m 12,9 km/h (3 Bft) 97,83 %
06.06.2022 14:00 20,1 C 22,2 C 19,4 C 69 % 1014,6 hPa 0,0 l/m 2 min 0 min 972 W/m 16,1 km/h (3 Bft) 95,74 %
06.06.2022 14:02 20,2 C 22,2 C 18,3 C 69 % 1014,6 hPa 0,0 l/m 2 min 0 min 985 W/m 16,1 km/h (3 Bft) 97,87 %
06.06.2022 14:04 20,3 C 22,8 C 18,3 C 69 % 1014,5 hPa 0,0 l/m 2 min 0 min 1038 W/m 16,1 km/h (3 Bft) 95,74 %
06.06.2022 14:06 20,4 C 22,8 C 18,3 C 68 % 1014,5 hPa 0,0 l/m 2 min 0 min 1088 W/m 29,0 km/h (5 Bft) 98,28 %
06.06.2022 14:08 20,5 C 22,2 C 17,8 C 68 % 1014,5 hPa 0,0 l/m 2 min 0 min 1088 W/m 22,5 km/h (4 Bft) 97,22 %
06.06.2022 14:10 20,4 C 21,1 C 17,2 C 65 % 1014,5 hPa 0,0 l/m 2 min 0 min 1088 W/m 22,5 km/h (4 Bft) 97,83 %
06.06.2022 14:12 20,4 C 21,7 C 17,2 C 68 % 1014,5 hPa 0,0 l/m 2 min 0 min 1070 W/m 22,5 km/h (4 Bft) 97,87 %
06.06.2022 14:14 20,5 C 22,8 C 17,8 C 68 % 1014,5 hPa 0,0 l/m 2 min 0 min 1019 W/m 38,6 km/h (5 Bft) 97,87 %
06.06.2022 14:16 20,5 C 22,8 C 17,2 C 67 % 1014,5 hPa 0,0 l/m 2 min 0 min 1008 W/m 38,6 km/h (5 Bft) 97,87 %
06.06.2022 14:18 20,5 C 21,7 C 17,2 C 66 % 1014,5 hPa 0,0 l/m 2 min 0 min 1007 W/m 25,7 km/h (4 Bft) 97,87 %
06.06.2022 14:20 20,6 C 22,8 C 17,2 C 66 % 1014,5 hPa 0,0 l/m 2 min 0 min 1011 W/m 32,2 km/h (5 Bft) 97,83 %
06.06.2022 14:22 20,7 C 23,3 C 17,2 C 68 % 1014,4 hPa 0,0 l/m 2 min 0 min 990 W/m 16,1 km/h (3 Bft) 97,87 %
06.06.2022 14:24 21,0 C 23,3 C 17,8 C 67 % 1014,4 hPa 0,0 l/m 2 min 0 min 969 W/m 19,3 km/h (3 Bft) 97,87 %
06.06.2022 14:26 21,1 C 23,3 C 17,8 C 65 % 1014,4 hPa 0,0 l/m 2 min 0 min 974 W/m 19,3 km/h (3 Bft) 97,87 %
06.06.2022 14:28 21,1 C 23,3 C 17,8 C 63 % 1014,3 hPa 0,0 l/m 2 min 0 min 981 W/m 32,2 km/h (5 Bft) 97,87 %
06.06.2022 14:30 21,2 C 22,8 C 17,2 C 64 % 1014,3 hPa 0,0 l/m 2 min 0 min 973 W/m 16,1 km/h (3 Bft) 97,87 %
06.06.2022 14:32 21,3 C 23,3 C 17,8 C 65 % 1014,3 hPa 0,0 l/m 2 min 0 min 997 W/m 25,7 km/h (4 Bft) 97,87 %
06.06.2022 14:34 21,4 C 23,3 C 17,8 C 63 % 1014,4 hPa 0,0 l/m 2 min 0 min 1027 W/m 19,3 km/h (3 Bft) 97,83 %
06.06.2022 14:36 21,4 C 22,8 C 17,8 C 62 % 1014,4 hPa 0,0 l/m 2 min 0 min 1104 W/m 32,2 km/h (5 Bft) 94,92 %
06.06.2022 14:38 21,3 C 22,2 C 17,8 C 61 % 1014,4 hPa 0,0 l/m 2 min 0 min 1109 W/m 29,0 km/h (5 Bft) 97,14 %
06.06.2022 14:40 21,3 C 22,2 C 17,2 C 62 % 1014,4 hPa 0,0 l/m 2 min 0 min 1109 W/m 22,5 km/h (4 Bft) 97,87 %
06.06.2022 14:42 21,3 C 22,8 C 17,2 C 62 % 1014,4 hPa 0,0 l/m 2 min 0 min 997 W/m 25,7 km/h (4 Bft) 97,87 %
06.06.2022 14:44 21,4 C 23,3 C 17,2 C 61 % 1014,3 hPa 0,0 l/m 2 min 0 min 986 W/m 12,9 km/h (3 Bft) 97,87 %
06.06.2022 14:46 21,6 C 23,3 C 17,8 C 60 % 1014,3 hPa 0,0 l/m 2 min 0 min 989 W/m 41,8 km/h (6 Bft) 97,83 %
06.06.2022 14:48 21,7 C 23,9 C 17,8 C 59 % 1014,3 hPa 0,0 l/m 2 min 0 min 989 W/m 29,0 km/h (5 Bft) 95,74 %
06.06.2022 14:50 21,7 C 23,9 C 17,8 C 60 % 1014,3 hPa 0,0 l/m 2 min 0 min 1023 W/m 25,7 km/h (4 Bft) 97,87 %
06.06.2022 14:52 21,8 C 23,9 C 17,8 C 59 % 1014,3 hPa 0,0 l/m 2 min 0 min 1046 W/m 25,7 km/h (4 Bft) 97,87 %
06.06.2022 14:54 21,8 C 23,9 C 17,8 C 59 % 1014,3 hPa 0,0 l/m 2 min 0 min 1044 W/m 25,7 km/h (4 Bft) 95,74 %
06.06.2022 14:56 21,9 C 23,9 C 17,8 C 59 % 1014,3 hPa 0,0 l/m 2 min 0 min 1014 W/m 19,3 km/h (3 Bft) 97,83 %
06.06.2022 14:58 22,0 C 23,9 C 17,8 C 59 % 1014,2 hPa 0,0 l/m 2 min 0 min 988 W/m 22,5 km/h (4 Bft) 95,74 %
06.06.2022 15:00 22,1 C 23,9 C 17,8 C 60 % 1014,3 hPa 0,0 l/m 2 min 0 min 1004 W/m 16,1 km/h (3 Bft) 95,74 %
06.06.2022 15:02 22,1 C 23,3 C 17,8 C 60 % 1014,2 hPa 0,0 l/m 2 min 0 min 504 W/m 16,1 km/h (3 Bft) 97,87 %
06.06.2022 15:04 21,9 C 22,8 C 17,8 C 58 % 1014,2 hPa 0,0 l/m 2 min 0 min 906 W/m 16,1 km/h (3 Bft) 100,00 %
06.06.2022 15:06 21,8 C 22,2 C 17,2 C 59 % 1014,2 hPa 0,0 l/m 0 min 0 min 265 W/m 29,0 km/h (5 Bft) 100,00 %
06.06.2022 15:08 21,7 C 22,2 C 17,8 C 60 % 1014,2 hPa 0,0 l/m 0 min 0 min 266 W/m 25,7 km/h (4 Bft) 97,22 %
06.06.2022 15:10 21,6 C 22,2 C 17,8 C 59 % 1014,2 hPa 0,0 l/m 0 min 0 min 332 W/m 22,5 km/h (4 Bft) 100,00 %
06.06.2022 15:12 21,6 C 22,8 C 17,8 C 59 % 1014,1 hPa 0,0 l/m 2 min 0 min 1000 W/m 22,5 km/h (4 Bft) 97,87 %
06.06.2022 15:14 21,6 C 22,8 C 17,8 C 58 % 1014,1 hPa 0,0 l/m 2 min 0 min 978 W/m 16,1 km/h (3 Bft) 97,87 %
06.06.2022 15:16 21,6 C 23,3 C 17,8 C 59 % 1014,2 hPa 0,0 l/m 2 min 0 min 1004 W/m 12,9 km/h (3 Bft) 97,87 %
06.06.2022 15:18 21,7 C 23,3 C 17,8 C 58 % 1014,2 hPa 0,0 l/m 2 min 0 min 735 W/m 12,9 km/h (3 Bft) 97,87 %
06.06.2022 15:20 21,8 C 24,4 C 17,8 C 60 % 1014,1 hPa 0,0 l/m 2 min 0 min 805 W/m 29,0 km/h (5 Bft) 97,87 %
06.06.2022 15:22 22,0 C 23,9 C 17,8 C 56 % 1014,1 hPa 0,0 l/m 2 min 0 min 914 W/m 25,7 km/h (4 Bft) 97,83 %
06.06.2022 15:24 22,1 C 23,9 C 17,8 C 57 % 1014,0 hPa 0,0 l/m 2 min 0 min 923 W/m 16,1 km/h (3 Bft) 97,87 %
06.06.2022 15:26 22,3 C 23,9 C 17,8 C 58 % 1014,0 hPa 0,0 l/m 2 min 0 min 891 W/m 19,3 km/h (3 Bft) 95,74 %
06.06.2022 15:28 22,2 C 23,3 C 17,8 C 55 % 1014,0 hPa 0,0 l/m 2 min 0 min 850 W/m 35,4 km/h (5 Bft) 91,49 %
06.06.2022 15:30 22,1 C 22,8 C 17,8 C 55 % 1014,0 hPa 0,0 l/m 2 min 0 min 744 W/m 25,7 km/h (4 Bft) 95,74 %
06.06.2022 15:32 21,9 C 22,2 C 17,8 C 56 % 1014,1 hPa 0,0 l/m 0 min 0 min 385 W/m 19,3 km/h (3 Bft) 95,65 %
06.06.2022 15:34 21,8 C 22,2 C 17,8 C 56 % 1014,1 hPa 0,0 l/m 0 min 0 min 328 W/m 19,3 km/h (3 Bft) 95,74 %
06.06.2022 15:36 21,7 C 21,7 C 17,8 C 56 % 1014,1 hPa 0,0 l/m 0 min 0 min 348 W/m 29,0 km/h (5 Bft) 93,22 %
06.06.2022 15:38 21,5 C 21,7 C 17,8 C 57 % 1014,1 hPa 0,0 l/m 0 min 0 min 312 W/m 22,5 km/h (4 Bft) 94,29 %
06.06.2022 15:40 21,4 C 21,1 C 17,2 C 57 % 1014,1 hPa 0,0 l/m 0 min 0 min 346 W/m 19,3 km/h (3 Bft) 95,74 %
06.06.2022 15:42 21,2 C 21,1 C 17,2 C 56 % 1014,1 hPa 0,0 l/m 0 min 0 min 383 W/m 25,7 km/h (4 Bft) 95,74 %
06.06.2022 15:44 21,1 C 21,7 C 17,2 C 58 % 1014,2 hPa 0,0 l/m 2 min 0 min 417 W/m 19,3 km/h (3 Bft) 95,74 %
06.06.2022 15:46 21,1 C 21,7 C 17,2 C 58 % 1014,3 hPa 0,0 l/m 2 min 0 min 451 W/m 29,0 km/h (5 Bft) 95,65 %
06.06.2022 15:48 21,1 C 21,7 C 17,8 C 59 % 1014,3 hPa 0,0 l/m 2 min 0 min 509 W/m 29,0 km/h (5 Bft) 97,87 %
06.06.2022 15:52 21,1 C 22,8 C 17,8 C 59 % 1014,3 hPa 0,0 l/m 4 min 0 min 731 W/m 16,1 km/h (3 Bft) 97,50 %
06.06.2022 15:54 21,3 C 23,3 C 17,8 C 59 % 1014,3 hPa 0,0 l/m 2 min 0 min 731 W/m 19,3 km/h (3 Bft) 97,83 %
06.06.2022 15:56 21,4 C 23,3 C 17,8 C 57 % 1014,3 hPa 0,0 l/m 2 min 0 min 656 W/m 29,0 km/h (5 Bft) 97,87 %
06.06.2022 15:58 21,4 C 23,3 C 17,8 C 57 % 1014,3 hPa 0,0 l/m 2 min 0 min 720 W/m 22,5 km/h (4 Bft) 97,14 %
06.06.2022 16:00 21,5 C 22,8 C 17,8 C 58 % 1014,3 hPa 0,0 l/m 2 min 0 min 615 W/m 22,5 km/h (4 Bft) 96,23 %
06.06.2022 16:02 21,5 C 22,8 C 17,8 C 58 % 1014,3 hPa 0,0 l/m 2 min 0 min 530 W/m 12,9 km/h (3 Bft) 97,87 %
06.06.2022 16:04 21,5 C 22,2 C 17,8 C 58 % 1014,3 hPa 0,0 l/m 2 min 0 min 402 W/m 19,3 km/h (3 Bft) 97,87 %
06.06.2022 16:06 21,3 C 21,7 C 17,8 C 58 % 1014,3 hPa 0,0 l/m 0 min 0 min 386 W/m 25,7 km/h (4 Bft) 96,55 %
06.06.2022 16:08 21,3 C 21,1 C 17,2 C 58 % 1014,2 hPa 0,0 l/m 0 min 0 min 387 W/m 22,5 km/h (4 Bft) 100,00 %
06.06.2022 16:10 21,2 C 21,1 C 17,2 C 59 % 1014,2 hPa 0,0 l/m 0 min 0 min 367 W/m 22,5 km/h (4 Bft) 100,00 %
06.06.2022 16:12 21,2 C 21,1 C 17,8 C 59 % 1014,3 hPa 0,0 l/m 0 min 0 min 340 W/m 19,3 km/h (3 Bft) 100,00 %
06.06.2022 16:14 21,1 C 21,1 C 17,2 C 59 % 1014,3 hPa 0,0 l/m 0 min 0 min 316 W/m 16,1 km/h (3 Bft) 100,00 %
06.06.2022 16:16 21,0 C 20,6 C 17,2 C 59 % 1014,3 hPa 0,0 l/m 0 min 0 min 308 W/m 25,7 km/h (4 Bft) 97,87 %
06.06.2022 16:18 20,8 C 20,6 C 17,2 C 58 % 1014,3 hPa 0,0 l/m 0 min 0 min 302 W/m 32,2 km/h (5 Bft) 100,00 %
06.06.2022 16:20 20,7 C 20,6 C 16,7 C 59 % 1014,4 hPa 0,0 l/m 0 min 0 min 289 W/m 25,7 km/h (4 Bft) 100,00 %
06.06.2022 16:22 20,6 C 20,0 C 16,7 C 59 % 1014,3 hPa 0,0 l/m 0 min 0 min 280 W/m 25,7 km/h (4 Bft) 100,00 %
06.06.2022 16:24 20,5 C 20,0 C 16,7 C 59 % 1014,3 hPa 0,0 l/m 0 min 0 min 286 W/m 32,2 km/h (5 Bft) 100,00 %
06.06.2022 16:26 20,4 C 20,0 C 16,7 C 59 % 1014,3 hPa 0,0 l/m 0 min 0 min 297 W/m 19,3 km/h (3 Bft) 100,00 %
06.06.2022 16:28 20,4 C 20,0 C 16,7 C 59 % 1014,3 hPa 0,0 l/m 0 min 0 min 307 W/m 19,3 km/h (3 Bft) 100,00 %
06.06.2022 16:30 20,4 C 20,6 C 16,7 C 60 % 1014,3 hPa 0,0 l/m 0 min 0 min 309 W/m 19,3 km/h (3 Bft) 100,00 %
06.06.2022 16:32 20,4 C 20,6 C 16,7 C 60 % 1014,3 hPa 0,0 l/m 0 min 0 min 312 W/m 16,1 km/h (3 Bft) 100,00 %
06.06.2022 16:34 20,4 C 20,6 C 16,7 C 59 % 1014,3 hPa 0,0 l/m 0 min 0 min 330 W/m 22,5 km/h (4 Bft) 100,00 %
06.06.2022 16:36 20,5 C 22,2 C 16,7 C 61 % 1014,3 hPa 0,0 l/m 2 min 0 min 388 W/m 22,5 km/h (4 Bft) 100,00 %
06.06.2022 16:38 20,7 C 22,8 C 17,2 C 59 % 1014,3 hPa 0,0 l/m 2 min 0 min 735 W/m 22,5 km/h (4 Bft) 100,00 %
06.06.2022 16:40 20,8 C 22,2 C 17,2 C 59 % 1014,3 hPa 0,0 l/m 2 min 0 min 567 W/m 19,3 km/h (3 Bft) 100,00 %
06.06.2022 16:42 20,8 C 21,7 C 17,2 C 59 % 1014,3 hPa 0,0 l/m 2 min 0 min 384 W/m 19,3 km/h (3 Bft) 100,00 %
06.06.2022 16:44 20,8 C 21,1 C 17,2 C 59 % 1014,3 hPa 0,0 l/m 2 min 0 min 382 W/m 19,3 km/h (3 Bft) 100,00 %
06.06.2022 16:46 20,8 C 21,1 C 17,2 C 59 % 1014,4 hPa 0,0 l/m 2 min 0 min 379 W/m 19,3 km/h (3 Bft) 100,00 %
06.06.2022 16:48 20,9 C 21,7 C 17,2 C 60 % 1014,3 hPa 0,0 l/m 2 min 0 min 388 W/m 16,1 km/h (3 Bft) 100,00 %
06.06.2022 16:50 20,9 C 22,2 C 17,2 C 60 % 1014,2 hPa 0,0 l/m 2 min 0 min 460 W/m 12,9 km/h (3 Bft) 100,00 %
06.06.2022 16:52 21,0 C 22,2 C 17,2 C 61 % 1014,3 hPa 0,0 l/m 2 min 0 min 527 W/m 16,1 km/h (3 Bft) 100,00 %
06.06.2022 16:54 21,1 C 22,2 C 17,8 C 61 % 1014,3 hPa 0,0 l/m 2 min 0 min 382 W/m 19,3 km/h (3 Bft) 100,00 %
06.06.2022 16:56 21,1 C 21,7 C 17,2 C 62 % 1014,3 hPa 0,0 l/m 0 min 0 min 280 W/m 12,9 km/h (3 Bft) 100,00 %
06.06.2022 16:58 21,1 C 21,1 C 17,2 C 61 % 1014,4 hPa 0,0 l/m 0 min 0 min 274 W/m 29,0 km/h (5 Bft) 100,00 %
06.06.2022 17:00 21,0 C 21,1 C 17,2 C 61 % 1014,4 hPa 0,0 l/m 0 min 0 min 315 W/m 22,5 km/h (4 Bft) 97,87 %
06.06.2022 17:02 20,9 C 21,7 C 17,2 C 61 % 1014,3 hPa 0,0 l/m 2 min 0 min 417 W/m 16,1 km/h (3 Bft) 97,87 %
06.06.2022 17:04 20,9 C 21,7 C 17,2 C 62 % 1014,3 hPa 0,0 l/m 2 min 0 min 531 W/m 29,0 km/h (5 Bft) 100,00 %
06.06.2022 17:06 20,9 C 22,2 C 17,2 C 60 % 1014,3 hPa 0,0 l/m 2 min 0 min 546 W/m 25,7 km/h (4 Bft) 100,00 %
06.06.2022 17:08 21,0 C 23,3 C 17,2 C 61 % 1014,3 hPa 0,0 l/m 2 min 0 min 572 W/m 25,7 km/h (4 Bft) 100,00 %
06.06.2022 17:10 21,1 C 23,9 C 17,8 C 61 % 1014,2 hPa 0,0 l/m 2 min 0 min 796 W/m 19,3 km/h (3 Bft) 100,00 %
06.06.2022 17:12 21,2 C 22,8 C 17,2 C 60 % 1014,2 hPa 0,0 l/m 2 min 0 min 607 W/m 16,1 km/h (3 Bft) 97,87 %
06.06.2022 17:14 21,1 C 21,7 C 17,2 C 59 % 1014,2 hPa 0,0 l/m 0 min 0 min 255 W/m 22,5 km/h (4 Bft) 97,87 %
06.06.2022 17:16 21,1 C 21,7 C 17,2 C 60 % 1014,3 hPa 0,0 l/m 0 min 0 min 276 W/m 22,5 km/h (4 Bft) 95,74 %
06.06.2022 17:18 21,1 C 23,3 C 17,2 C 60 % 1014,2 hPa 0,0 l/m 2 min 0 min 499 W/m 22,5 km/h (4 Bft) 97,87 %
06.06.2022 17:20 21,1 C 24,4 C 17,2 C 60 % 1014,2 hPa 0,0 l/m 2 min 0 min 806 W/m 25,7 km/h (4 Bft) 97,83 %
06.06.2022 17:22 21,2 C 24,4 C 17,8 C 59 % 1014,2 hPa 0,0 l/m 2 min 0 min 765 W/m 22,5 km/h (4 Bft) 97,87 %
06.06.2022 17:24 21,3 C 23,3 C 17,8 C 60 % 1014,2 hPa 0,0 l/m 2 min 0 min 705 W/m 19,3 km/h (3 Bft) 95,74 %
06.06.2022 17:26 21,3 C 22,8 C 17,2 C 60 % 1014,2 hPa 0,0 l/m 2 min 0 min 318 W/m 16,1 km/h (3 Bft) 97,87 %
06.06.2022 17:28 21,3 C 22,8 C 17,2 C 59 % 1014,3 hPa 0,0 l/m 2 min 0 min 356 W/m 25,7 km/h (4 Bft) 97,87 %
06.06.2022 17:30 21,3 C 23,9 C 17,2 C 59 % 1014,2 hPa 0,0 l/m 2 min 0 min 392 W/m 19,3 km/h (3 Bft) 97,87 %
06.06.2022 17:32 21,2 C 22,8 C 17,2 C 58 % 1014,2 hPa 0,0 l/m 2 min 0 min 383 W/m 29,0 km/h (5 Bft) 95,65 %
06.06.2022 17:34 21,1 C 21,7 C 17,2 C 57 % 1014,3 hPa 0,0 l/m 0 min 0 min 282 W/m 32,2 km/h (5 Bft) 95,74 %
06.06.2022 17:36 20,9 C 21,1 C 16,7 C 57 % 1014,2 hPa 0,0 l/m 0 min 0 min 268 W/m 22,5 km/h (4 Bft) 95,74 %
06.06.2022 17:38 20,8 C 20,6 C 16,7 C 58 % 1014,3 hPa 0,0 l/m 0 min 0 min 286 W/m 16,1 km/h (3 Bft) 95,74 %
06.06.2022 17:40 20,7 C 20,6 C 16,7 C 58 % 1014,3 hPa 0,0 l/m 2 min 0 min 304 W/m 12,9 km/h (3 Bft) 93,62 %
06.06.2022 17:42 20,6 C 20,6 C 16,7 C 58 % 1014,2 hPa 0,0 l/m 2 min 0 min 321 W/m 35,4 km/h (5 Bft) 95,74 %
06.06.2022 17:44 20,5 C 20,6 C 16,7 C 60 % 1014,3 hPa 0,0 l/m 2 min 0 min 340 W/m 38,6 km/h (5 Bft) 95,65 %
06.06.2022 17:46 20,4 C 20,6 C 16,7 C 60 % 1014,2 hPa 0,0 l/m 2 min 0 min 369 W/m 22,5 km/h (4 Bft) 95,74 %
06.06.2022 17:48 20,4 C 21,1 C 16,7 C 60 % 1014,3 hPa 0,0 l/m 2 min 0 min 399 W/m 22,5 km/h (4 Bft) 97,87 %
06.06.2022 17:50 20,5 C 22,2 C 17,2 C 61 % 1014,3 hPa 0,0 l/m 2 min 0 min 475 W/m 25,7 km/h (4 Bft) 95,74 %
06.06.2022 17:52 20,6 C 22,8 C 17,2 C 61 % 1014,2 hPa 0,0 l/m 2 min 0 min 555 W/m 22,5 km/h (4 Bft) 97,87 %
06.06.2022 17:54 20,6 C 22,8 C 17,2 C 59 % 1014,3 hPa 0,0 l/m 2 min 0 min 406 W/m 38,6 km/h (5 Bft) 97,87 %
06.06.2022 17:56 20,7 C 22,8 C 17,2 C 60 % 1014,2 hPa 0,0 l/m 2 min 0 min 372 W/m 25,7 km/h (4 Bft) 95,65 %
06.06.2022 17:58 20,8 C 22,2 C 17,2 C 60 % 1014,2 hPa 0,0 l/m 2 min 0 min 311 W/m 32,2 km/h (5 Bft) 95,74 %
06.06.2022 18:00 20,7 C 21,7 C 17,2 C 60 % 1014,2 hPa 0,0 l/m 2 min 0 min 309 W/m 19,3 km/h (3 Bft) 95,74 %
06.06.2022 18:02 20,7 C 21,1 C 16,7 C 60 % 1014,2 hPa 0,0 l/m 0 min 0 min 223 W/m 16,1 km/h (3 Bft) 93,62 %
06.06.2022 18:04 20,6 C 20,6 C 16,7 C 60 % 1014,1 hPa 0,0 l/m 0 min 0 min 223 W/m 32,2 km/h (5 Bft) 95,74 %
06.06.2022 18:08 20,4 C 20,0 C 16,7 C 60 % 1014,2 hPa 0,0 l/m 0 min 0 min 211 W/m 29,0 km/h (5 Bft) 95,74 %
06.06.2022 18:10 20,3 C 20,0 C 16,1 C 59 % 1014,2 hPa 0,0 l/m 0 min 0 min 207 W/m 35,4 km/h (5 Bft) 95,74 %
06.06.2022 18:12 20,3 C 20,0 C 16,1 C 60 % 1014,2 hPa 0,0 l/m 0 min 0 min 209 W/m 35,4 km/h (5 Bft) 95,74 %
06.06.2022 18:14 20,2 C 20,0 C 16,1 C 60 % 1014,2 hPa 0,0 l/m 0 min 0 min 206 W/m 35,4 km/h (5 Bft) 95,74 %
06.06.2022 18:16 20,1 C 19,4 C 16,1 C 59 % 1014,2 hPa 0,0 l/m 0 min 0 min 213 W/m 35,4 km/h (5 Bft) 95,73 %
06.06.2022 18:18 20,1 C 19,4 C 16,1 C 60 % 1014,3 hPa 0,0 l/m 0 min 0 min 207 W/m 29,0 km/h (5 Bft) 97,87 %
06.06.2022 18:20 20,1 C 19,4 C 16,1 C 60 % 1014,2 hPa 0,0 l/m 0 min 0 min 201 W/m 32,2 km/h (5 Bft) 93,48 %
06.06.2022 18:22 20,0 C 19,4 C 16,1 C 60 % 1014,2 hPa 0,0 l/m 0 min 0 min 189 W/m 16,1 km/h (3 Bft) 93,62 %
06.06.2022 18:24 20,0 C 19,4 C 16,1 C 60 % 1014,2 hPa 0,0 l/m 0 min 0 min 173 W/m 29,0 km/h (5 Bft) 95,74 %
06.06.2022 18:26 19,9 C 19,4 C 16,1 C 61 % 1014,3 hPa 0,0 l/m 0 min 0 min 161 W/m 19,3 km/h (3 Bft) 95,74 %
06.06.2022 18:28 19,9 C 19,4 C 16,1 C 61 % 1014,2 hPa 0,0 l/m 0 min 0 min 155 W/m 32,2 km/h (5 Bft) 97,87 %
06.06.2022 18:30 19,9 C 19,4 C 16,1 C 61 % 1014,2 hPa 0,0 l/m 0 min 0 min 149 W/m 19,3 km/h (3 Bft) 97,87 %
06.06.2022 18:32 19,9 C 19,4 C 16,1 C 62 % 1014,3 hPa 0,0 l/m 0 min 0 min 146 W/m 16,1 km/h (3 Bft) 97,83 %
06.06.2022 18:34 19,9 C 19,4 C 16,1 C 62 % 1014,3 hPa 0,0 l/m 0 min 0 min 143 W/m 16,1 km/h (3 Bft) 97,87 %
06.06.2022 18:36 19,8 C 19,4 C 15,6 C 62 % 1014,2 hPa 0,0 l/m 0 min 0 min 140 W/m 16,1 km/h (3 Bft) 96,61 %
06.06.2022 18:38 19,8 C 19,4 C 15,6 C 62 % 1014,2 hPa 0,0 l/m 0 min 0 min 134 W/m 25,7 km/h (4 Bft) 97,14 %
06.06.2022 18:40 19,8 C 18,9 C 15,6 C 62 % 1014,2 hPa 0,0 l/m 0 min 0 min 126 W/m 12,9 km/h (3 Bft) 100,00 %
06.06.2022 18:42 19,8 C 18,9 C 15,6 C 63 % 1014,2 hPa 0,0 l/m 0 min 0 min 121 W/m 16,1 km/h (3 Bft) 100,00 %
06.06.2022 18:44 19,7 C 18,9 C 15,6 C 63 % 1014,2 hPa 0,0 l/m 0 min 0 min 123 W/m 19,3 km/h (3 Bft) 100,00 %
06.06.2022 18:46 19,7 C 18,9 C 15,6 C 62 % 1014,2 hPa 0,0 l/m 0 min 0 min 126 W/m 12,9 km/h (3 Bft) 100,00 %
06.06.2022 18:48 19,7 C 18,9 C 15,6 C 63 % 1014,2 hPa 0,0 l/m 0 min 0 min 124 W/m 22,5 km/h (4 Bft) 97,87 %
06.06.2022 18:50 19,6 C 18,9 C 15,6 C 63 % 1014,2 hPa 0,0 l/m 0 min 0 min 119 W/m 22,5 km/h (4 Bft) 100,00 %
06.06.2022 18:52 19,6 C 18,9 C 15,6 C 63 % 1014,2 hPa 0,0 l/m 0 min 0 min 116 W/m 16,1 km/h (3 Bft) 97,87 %
06.06.2022 18:54 19,6 C 18,9 C 15,6 C 64 % 1014,3 hPa 0,0 l/m 0 min 0 min 114 W/m 22,5 km/h (4 Bft) 100,00 %
06.06.2022 18:56 19,6 C 18,9 C 15,6 C 63 % 1014,2 hPa 0,0 l/m 0 min 0 min 110 W/m 25,7 km/h (4 Bft) 97,87 %
06.06.2022 18:58 19,5 C 18,9 C 15,6 C 64 % 1014,3 hPa 0,0 l/m 0 min 0 min 104 W/m 16,1 km/h (3 Bft) 100,00 %
06.06.2022 19:00 19,4 C 18,9 C 15,6 C 63 % 1014,3 hPa 0,0 l/m 0 min 0 min 98 W/m 22,5 km/h (4 Bft) 100,00 %
06.06.2022 19:02 19,4 C 18,9 C 15,6 C 64 % 1014,4 hPa 0,0 l/m 0 min 0 min 96 W/m 16,1 km/h (3 Bft) 100,00 %
06.06.2022 19:04 19,4 C 18,9 C 15,6 C 64 % 1014,4 hPa 0,0 l/m 0 min 0 min 93 W/m 19,3 km/h (3 Bft) 100,00 %
06.06.2022 19:06 19,3 C 18,9 C 15,6 C 64 % 1014,4 hPa 0,0 l/m 0 min 0 min 91 W/m 29,0 km/h (5 Bft) 100,00 %
06.06.2022 19:08 19,3 C 18,9 C 15,0 C 64 % 1014,4 hPa 0,0 l/m 0 min 0 min 89 W/m 16,1 km/h (3 Bft) 100,00 %
06.06.2022 19:10 19,3 C 18,9 C 15,0 C 65 % 1014,4 hPa 0,0 l/m 0 min 0 min 86 W/m 16,1 km/h (3 Bft) 100,00 %
06.06.2022 19:12 19,3 C 18,9 C 15,0 C 65 % 1014,5 hPa 0,0 l/m 0 min 0 min 84 W/m 9,7 km/h (2 Bft) 97,87 %
06.06.2022 19:14 19,3 C 18,9 C 15,0 C 65 % 1014,4 hPa 0,0 l/m 0 min 0 min 84 W/m 12,9 km/h (3 Bft) 100,00 %
06.06.2022 19:16 19,2 C 18,3 C 15,0 C 65 % 1014,4 hPa 0,0 l/m 0 min 0 min 83 W/m 19,3 km/h (3 Bft) 97,87 %
06.06.2022 19:18 19,2 C 18,3 C 15,0 C 65 % 1014,4 hPa 0,0 l/m 0 min 0 min 83 W/m 16,1 km/h (3 Bft) 97,83 %
06.06.2022 19:20 19,1 C 18,3 C 15,0 C 65 % 1014,4 hPa 0,0 l/m 0 min 0 min 83 W/m 16,1 km/h (3 Bft) 97,87 %
06.06.2022 19:22 19,2 C 18,3 C 15,0 C 65 % 1014,5 hPa 0,0 l/m 0 min 0 min 84 W/m 9,7 km/h (2 Bft) 97,87 %
06.06.2022 19:24 19,1 C 18,3 C 15,0 C 65 % 1014,5 hPa 0,0 l/m 0 min 0 min 84 W/m 16,1 km/h (3 Bft) 97,87 %
06.06.2022 19:26 19,2 C 18,3 C 15,0 C 66 % 1014,5 hPa 0,0 l/m 0 min 0 min 84 W/m 12,9 km/h (3 Bft) 97,87 %
06.06.2022 19:28 19,2 C 18,3 C 15,0 C 66 % 1014,5 hPa 0,0 l/m 0 min 0 min 82 W/m 12,9 km/h (3 Bft) 97,87 %
06.06.2022 19:30 19,1 C 18,3 C 15,0 C 66 % 1014,5 hPa 0,0 l/m 0 min 0 min 81 W/m 9,7 km/h (2 Bft) 97,87 %
06.06.2022 19:32 19,1 C 18,3 C 15,0 C 67 % 1014,5 hPa 0,0 l/m 0 min 0 min 81 W/m 9,7 km/h (2 Bft) 97,83 %
06.06.2022 19:34 19,1 C 18,3 C 15,0 C 66 % 1014,5 hPa 0,0 l/m 0 min 0 min 79 W/m 9,7 km/h (2 Bft) 97,87 %
06.06.2022 19:36 19,1 C 18,3 C 15,0 C 67 % 1014,6 hPa 0,0 l/m 0 min 0 min 77 W/m 16,1 km/h (3 Bft) 95,74 %
06.06.2022 19:38 19,1 C 18,3 C 15,0 C 67 % 1014,6 hPa 0,0 l/m 0 min 0 min 76 W/m 6,4 km/h (2 Bft) 97,87 %
06.06.2022 19:40 19,1 C 18,3 C 15,0 C 67 % 1014,6 hPa 0,0 l/m 0 min 0 min 75 W/m 6,4 km/h (2 Bft) 97,87 %
06.06.2022 19:42 19,1 C 18,3 C 15,0 C 67 % 1014,6 hPa 0,0 l/m 0 min 0 min 71 W/m 22,5 km/h (4 Bft) 97,83 %
06.06.2022 19:44 19,1 C 18,3 C 15,0 C 66 % 1014,6 hPa 0,0 l/m 0 min 0 min 68 W/m 16,1 km/h (3 Bft) 97,87 %
06.06.2022 19:46 19,1 C 18,3 C 15,0 C 66 % 1014,6 hPa 0,0 l/m 0 min 0 min 66 W/m 19,3 km/h (3 Bft) 97,87 %
06.06.2022 19:48 19,0 C 18,3 C 15,0 C 66 % 1014,6 hPa 0,0 l/m 0 min 0 min 62 W/m 6,4 km/h (2 Bft) 97,87 %
06.06.2022 19:50 19,0 C 18,3 C 15,0 C 67 % 1014,7 hPa 0,0 l/m 0 min 0 min 58 W/m 12,9 km/h (3 Bft) 95,74 %
06.06.2022 19:52 19,0 C 18,3 C 15,0 C 67 % 1014,6 hPa 0,0 l/m 0 min 0 min 57 W/m 16,1 km/h (3 Bft) 100,00 %
06.06.2022 19:54 18,9 C 18,3 C 15,0 C 66 % 1014,6 hPa 0,0 l/m 0 min 0 min 56 W/m 12,9 km/h (3 Bft) 100,00 %
06.06.2022 19:56 18,9 C 18,3 C 15,0 C 66 % 1014,5 hPa 0,0 l/m 0 min 0 min 56 W/m 22,5 km/h (4 Bft) 100,00 %
06.06.2022 19:58 18,8 C 18,3 C 15,0 C 66 % 1014,6 hPa 0,0 l/m 0 min 0 min 54 W/m 16,1 km/h (3 Bft) 100,00 %
06.06.2022 20:00 18,8 C 18,3 C 15,0 C 66 % 1014,6 hPa 0,0 l/m 0 min 0 min 54 W/m 25,7 km/h (4 Bft) 100,00 %
06.06.2022 20:02 18,8 C 18,3 C 14,4 C 66 % 1014,7 hPa 0,0 l/m 0 min 0 min 53 W/m 12,9 km/h (3 Bft) 100,00 %
06.06.2022 20:04 18,8 C 18,3 C 14,4 C 66 % 1014,7 hPa 0,0 l/m 0 min 0 min 50 W/m 19,3 km/h (3 Bft) 100,00 %
06.06.2022 20:06 18,7 C 18,3 C 14,4 C 66 % 1014,8 hPa 0,0 l/m 0 min 0 min 47 W/m 12,9 km/h (3 Bft) 100,00 %
06.06.2022 20:08 18,7 C 18,3 C 14,4 C 66 % 1014,8 hPa 0,0 l/m 0 min 0 min 44 W/m 16,1 km/h (3 Bft) 97,14 %
06.06.2022 20:10 18,7 C 17,8 C 14,4 C 66 % 1014,8 hPa 0,0 l/m 0 min 0 min 41 W/m 9,7 km/h (2 Bft) 100,00 %
06.06.2022 20:12 18,7 C 17,8 C 14,4 C 66 % 1014,8 hPa 0,0 l/m 0 min 0 min 39 W/m 12,9 km/h (3 Bft) 100,00 %
06.06.2022 20:14 18,7 C 17,8 C 14,4 C 66 % 1014,7 hPa 0,0 l/m 0 min 0 min 37 W/m 12,9 km/h (3 Bft) 100,00 %
06.06.2022 20:16 18,7 C 17,8 C 14,4 C 66 % 1014,8 hPa 0,0 l/m 0 min 0 min 34 W/m 25,7 km/h (4 Bft) 100,00 %
06.06.2022 20:18 18,6 C 17,8 C 14,4 C 66 % 1014,8 hPa 0,0 l/m 0 min 0 min 31 W/m 16,1 km/h (3 Bft) 100,00 %
06.06.2022 20:20 18,6 C 17,8 C 14,4 C 66 % 1014,8 hPa 0,0 l/m 0 min 0 min 29 W/m 19,3 km/h (3 Bft) 97,87 %
06.06.2022 20:22 18,6 C 17,8 C 14,4 C 67 % 1014,8 hPa 0,0 l/m 0 min 0 min 27 W/m 9,7 km/h (2 Bft) 100,00 %
06.06.2022 20:24 18,6 C 17,8 C 14,4 C 66 % 1014,8 hPa 0,0 l/m 0 min 0 min 25 W/m 16,1 km/h (3 Bft) 100,00 %
06.06.2022 20:26 18,6 C 17,8 C 14,4 C 67 % 1014,8 hPa 0,0 l/m 0 min 0 min 25 W/m 12,9 km/h (3 Bft) 100,00 %
06.06.2022 20:28 18,6 C 17,8 C 14,4 C 67 % 1014,8 hPa 0,0 l/m 0 min 0 min 23 W/m 12,9 km/h (3 Bft) 100,00 %
06.06.2022 20:30 18,5 C 17,8 C 14,4 C 67 % 1014,8 hPa 0,0 l/m 0 min 0 min 22 W/m 12,9 km/h (3 Bft) 97,87 %
06.06.2022 20:32 18,5 C 17,8 C 14,4 C 67 % 1014,8 hPa 0,0 l/m 0 min 0 min 21 W/m 12,9 km/h (3 Bft) 97,87 %
06.06.2022 20:34 18,4 C 17,8 C 14,4 C 67 % 1014,7 hPa 0,0 l/m 0 min 0 min 21 W/m 9,7 km/h (2 Bft) 100,00 %
06.06.2022 20:36 18,4 C 17,8 C 14,4 C 67 % 1014,8 hPa 0,0 l/m 0 min 0 min 21 W/m 12,9 km/h (3 Bft) 100,00 %
06.06.2022 20:38 18,4 C 17,8 C 14,4 C 67 % 1014,8 hPa 0,0 l/m 0 min 0 min 19 W/m 16,1 km/h (3 Bft) 95,74 %
06.06.2022 20:40 18,4 C 17,8 C 14,4 C 67 % 1014,8 hPa 0,0 l/m 0 min 0 min 19 W/m 16,1 km/h (3 Bft) 97,83 %
06.06.2022 20:42 18,4 C 17,8 C 14,4 C 67 % 1014,8 hPa 0,0 l/m 0 min 0 min 19 W/m 9,7 km/h (2 Bft) 95,74 %
06.06.2022 20:44 18,3 C 17,8 C 14,4 C 67 % 1014,8 hPa 0,0 l/m 0 min 0 min 18 W/m 6,4 km/h (2 Bft) 95,74 %
06.06.2022 20:46 18,3 C 17,8 C 14,4 C 67 % 1014,8 hPa 0,0 l/m 0 min 0 min 18 W/m 19,3 km/h (3 Bft) 93,62 %
06.06.2022 20:48 18,3 C 17,8 C 13,9 C 67 % 1014,8 hPa 0,0 l/m 0 min 0 min 17 W/m 12,9 km/h (3 Bft) 95,74 %
06.06.2022 20:50 18,3 C 17,2 C 13,9 C 67 % 1014,8 hPa 0,0 l/m 0 min 0 min 16 W/m 16,1 km/h (3 Bft) 95,74 %
06.06.2022 20:52 18,3 C 17,2 C 13,9 C 67 % 1014,7 hPa 0,0 l/m 0 min 0 min 16 W/m 6,4 km/h (2 Bft) 91,30 %
06.06.2022 20:54 18,3 C 17,2 C 13,9 C 68 % 1014,7 hPa 0,0 l/m 0 min 0 min 16 W/m 9,7 km/h (2 Bft) 95,74 %
06.06.2022 20:56 18,3 C 17,2 C 13,9 C 68 % 1014,7 hPa 0,0 l/m 0 min 0 min 15 W/m 9,7 km/h (2 Bft) 95,74 %
06.06.2022 20:58 18,3 C 17,2 C 13,9 C 68 % 1014,7 hPa 0,0 l/m 0 min 0 min 14 W/m 6,4 km/h (2 Bft) 95,74 %
06.06.2022 21:00 18,2 C 17,2 C 13,9 C 68 % 1014,7 hPa 0,0 l/m 0 min 0 min 13 W/m 9,7 km/h (2 Bft) 95,74 %
06.06.2022 21:02 18,2 C 17,2 C 13,9 C 68 % 1014,7 hPa 0,0 l/m 0 min 0 min 12 W/m 12,9 km/h (3 Bft) 93,62 %
06.06.2022 21:04 18,2 C 17,2 C 13,9 C 68 % 1014,8 hPa 0,0 l/m 0 min 0 min 12 W/m 12,9 km/h (3 Bft) 95,65 %
06.06.2022 21:06 18,2 C 17,2 C 13,9 C 69 % 1014,8 hPa 0,0 l/m 0 min 0 min 12 W/m 16,1 km/h (3 Bft) 93,62 %
06.06.2022 21:08 18,2 C 17,2 C 13,3 C 70 % 1014,8 hPa 0,0 l/m 0 min 0 min 11 W/m 6,4 km/h (2 Bft) 95,74 %
06.06.2022 21:10 18,1 C 16,7 C 13,3 C 71 % 1014,8 hPa 0,0 l/m 0 min 0 min 11 W/m 12,9 km/h (3 Bft) 93,62 %
06.06.2022 21:12 18,1 C 16,7 C 13,3 C 71 % 1014,8 hPa 0,0 l/m 0 min 0 min 10 W/m 12,9 km/h (3 Bft) 93,62 %
06.06.2022 21:14 18,0 C 16,7 C 13,3 C 72 % 1014,8 hPa 0,0 l/m 0 min 0 min 7 W/m 9,7 km/h (2 Bft) 93,62 %
06.06.2022 21:16 17,9 C 16,7 C 13,3 C 72 % 1014,8 hPa 0,0 l/m 0 min 0 min 6 W/m 6,4 km/h (2 Bft) 93,48 %
06.06.2022 21:18 17,9 C 16,7 C 13,3 C 73 % 1014,9 hPa 0,0 l/m 0 min 0 min 5 W/m 12,9 km/h (3 Bft) 93,62 %
06.06.2022 21:20 17,8 C 16,7 C 12,8 C 73 % 1014,9 hPa 0,0 l/m 0 min 0 min 5 W/m 16,1 km/h (3 Bft) 95,74 %
06.06.2022 21:22 17,8 C 16,7 C 12,8 C 73 % 1014,9 hPa 0,0 l/m 0 min 0 min 5 W/m 16,1 km/h (3 Bft) 93,62 %
06.06.2022 21:24 17,7 C 16,1 C 12,8 C 74 % 1014,9 hPa 0,0 l/m 0 min 0 min 5 W/m 9,7 km/h (2 Bft) 93,62 %
06.06.2022 21:26 17,6 C 16,1 C 12,8 C 74 % 1015,0 hPa 0,0 l/m 0 min 0 min 2 W/m 6,4 km/h (2 Bft) 95,74 %
06.06.2022 21:28 17,6 C 16,1 C 12,8 C 75 % 1015,0 hPa 0,0 l/m 0 min 0 min 0 W/m 6,4 km/h (2 Bft) 93,48 %
06.06.2022 21:30 17,5 C 16,1 C 12,8 C 75 % 1015,0 hPa 0,0 l/m 0 min 0 min 0 W/m 9,7 km/h (2 Bft) 95,74 %
06.06.2022 21:32 17,4 C 16,1 C 12,8 C 75 % 1015,0 hPa 0,0 l/m 0 min 0 min 0 W/m 12,9 km/h (3 Bft) 95,74 %
06.06.2022 21:34 17,3 C 16,1 C 12,8 C 75 % 1015,0 hPa 0,0 l/m 0 min 0 min 0 W/m 6,4 km/h (2 Bft) 97,87 %
06.06.2022 21:36 17,3 C 16,1 C 12,8 C 76 % 1015,0 hPa 0,0 l/m 0 min 0 min 0 W/m 6,4 km/h (2 Bft) 97,87 %
06.06.2022 21:38 17,3 C 16,1 C 12,8 C 76 % 1015,0 hPa 0,0 l/m 0 min 0 min 0 W/m 12,9 km/h (3 Bft) 95,74 %
06.06.2022 21:40 17,2 C 16,1 C 12,8 C 76 % 1015,0 hPa 0,0 l/m 0 min 0 min 0 W/m 6,4 km/h (2 Bft) 97,83 %
06.06.2022 21:42 17,2 C 16,1 C 12,8 C 77 % 1015,0 hPa 0,0 l/m 0 min 0 min 0 W/m 6,4 km/h (2 Bft) 95,74 %
06.06.2022 21:44 17,2 C 16,1 C 12,8 C 77 % 1015,0 hPa 0,0 l/m 0 min 0 min 0 W/m 3,2 km/h (1 Bft) 95,74 %
06.06.2022 21:46 17,1 C 16,1 C 12,8 C 77 % 1015,0 hPa 0,0 l/m 0 min 0 min 0 W/m 6,4 km/h (2 Bft) 100,00 %
06.06.2022 21:48 17,1 C 16,1 C 12,8 C 77 % 1015,0 hPa 0,0 l/m 0 min 0 min 0 W/m 3,2 km/h (1 Bft) 97,87 %
06.06.2022 21:50 17,1 C 16,1 C 12,8 C 77 % 1015,0 hPa 0,0 l/m 0 min 0 min 0 W/m 3,2 km/h (1 Bft) 100,00 %
06.06.2022 21:52 17,1 C 16,1 C 12,8 C 77 % 1015,1 hPa 0,0 l/m 0 min 0 min 0 W/m 6,4 km/h (2 Bft) 97,83 %
06.06.2022 21:54 17,1 C 16,1 C 12,2 C 77 % 1015,1 hPa 0,0 l/m 0 min 0 min 0 W/m 6,4 km/h (2 Bft) 100,00 %
06.06.2022 21:56 17,1 C 15,6 C 12,2 C 77 % 1015,1 hPa 0,0 l/m 0 min 0 min 0 W/m 9,7 km/h (2 Bft) 100,00 %
06.06.2022 21:58 17,0 C 15,6 C 12,2 C 78 % 1015,2 hPa 0,0 l/m 0 min 0 min 0 W/m 6,4 km/h (2 Bft) 97,87 %
06.06.2022 22:00 16,9 C 15,6 C 12,2 C 78 % 1015,1 hPa 0,0 l/m 0 min 0 min 0 W/m 0,0 km/h (0 Bft) 100,00 %
06.06.2022 22:02 16,9 C 15,6 C 12,2 C 78 % 1015,2 hPa 0,0 l/m 0 min 0 min 0 W/m 6,4 km/h (2 Bft) 100,00 %
06.06.2022 22:04 16,8 C 15,6 C 12,2 C 78 % 1015,2 hPa 0,0 l/m 0 min 0 min 0 W/m 3,2 km/h (1 Bft) 100,00 %
06.06.2022 22:06 16,8 C 15,6 C 12,2 C 79 % 1015,2 hPa 0,0 l/m 0 min 0 min 0 W/m 9,7 km/h (2 Bft) 100,00 %
06.06.2022 22:08 16,7 C 15,6 C 12,2 C 79 % 1015,2 hPa 0,0 l/m 0 min 0 min 0 W/m 12,9 km/h (3 Bft) 100,00 %
06.06.2022 22:10 16,6 C 15,6 C 12,2 C 79 % 1015,2 hPa 0,0 l/m 0 min 0 min 0 W/m 6,4 km/h (2 Bft) 100,00 %
06.06.2022 22:12 16,6 C 15,6 C 11,7 C 80 % 1015,2 hPa 0,0 l/m 0 min 0 min 0 W/m 12,9 km/h (3 Bft) 100,00 %
06.06.2022 22:14 16,4 C 15,0 C 11,7 C 80 % 1015,3 hPa 0,0 l/m 0 min 0 min 0 W/m 6,4 km/h (2 Bft) 100,00 %
06.06.2022 22:16 16,3 C 15,0 C 11,7 C 81 % 1015,3 hPa 0,0 l/m 0 min 0 min 0 W/m 6,4 km/h (2 Bft) 97,83 %
06.06.2022 22:18 16,2 C 15,0 C 11,7 C 81 % 1015,3 hPa 0,0 l/m 0 min 0 min 0 W/m 12,9 km/h (3 Bft) 100,00 %
06.06.2022 22:20 16,1 C 15,0 C 11,1 C 82 % 1015,3 hPa 0,0 l/m 0 min 0 min 0 W/m 16,1 km/h (3 Bft) 100,00 %
06.06.2022 22:22 16,0 C 15,0 C 11,1 C 82 % 1015,3 hPa 0,0 l/m 0 min 0 min 0 W/m 9,7 km/h (2 Bft) 100,00 %
06.06.2022 22:24 15,9 C 14,4 C 11,1 C 83 % 1015,3 hPa 0,0 l/m 0 min 0 min 0 W/m 9,7 km/h (2 Bft) 100,00 %
06.06.2022 22:26 15,8 C 14,4 C 11,1 C 83 % 1015,3 hPa 0,0 l/m 0 min 0 min 0 W/m 12,9 km/h (3 Bft) 100,00 %
06.06.2022 22:28 15,7 C 14,4 C 11,1 C 83 % 1015,3 hPa 0,0 l/m 0 min 0 min 0 W/m 6,4 km/h (2 Bft) 100,00 %
06.06.2022 22:30 15,6 C 14,4 C 11,1 C 84 % 1015,3 hPa 0,0 l/m 0 min 0 min 0 W/m 6,4 km/h (2 Bft) 100,00 %
06.06.2022 22:32 15,6 C 14,4 C 11,1 C 84 % 1015,4 hPa 0,0 l/m 0 min 0 min 0 W/m 16,1 km/h (3 Bft) 100,00 %
06.06.2022 22:34 15,5 C 14,4 C 11,1 C 84 % 1015,4 hPa 0,0 l/m 0 min 0 min 0 W/m 9,7 km/h (2 Bft) 100,00 %
06.06.2022 22:36 15,4 C 14,4 C 11,1 C 84 % 1015,5 hPa 0,0 l/m 0 min 0 min 0 W/m 9,7 km/h (2 Bft) 100,00 %
06.06.2022 22:38 15,4 C 14,4 C 11,1 C 84 % 1015,4 hPa 0,0 l/m 0 min 0 min 0 W/m 9,7 km/h (2 Bft) 100,00 %
06.06.2022 22:40 15,4 C 14,4 C 11,1 C 85 % 1015,4 hPa 0,0 l/m 0 min 0 min 0 W/m 6,4 km/h (2 Bft) 100,00 %
06.06.2022 22:42 15,3 C 14,4 C 11,1 C 85 % 1015,5 hPa 0,0 l/m 0 min 0 min 0 W/m 6,4 km/h (2 Bft) 100,00 %
06.06.2022 22:44 15,3 C 14,4 C 11,1 C 85 % 1015,4 hPa 0,0 l/m 0 min 0 min 0 W/m 3,2 km/h (1 Bft) 100,00 %
06.06.2022 22:46 15,2 C 14,4 C 11,1 C 85 % 1015,4 hPa 0,0 l/m 0 min 0 min 0 W/m 6,4 km/h (2 Bft) 100,00 %
06.06.2022 22:48 15,2 C 13,9 C 11,1 C 85 % 1015,4 hPa 0,0 l/m 0 min 0 min 0 W/m 9,7 km/h (2 Bft) 100,00 %
06.06.2022 22:50 15,2 C 13,9 C 10,6 C 85 % 1015,4 hPa 0,0 l/m 0 min 0 min 0 W/m 6,4 km/h (2 Bft) 100,00 %
06.06.2022 22:52 15,1 C 13,9 C 10,6 C 86 % 1015,4 hPa 0,0 l/m 0 min 0 min 0 W/m 9,7 km/h (2 Bft) 100,00 %
06.06.2022 22:54 15,1 C 13,9 C 10,6 C 86 % 1015,4 hPa 0,0 l/m 0 min 0 min 0 W/m 9,7 km/h (2 Bft) 100,00 %
06.06.2022 22:56 15,1 C 13,9 C 10,6 C 86 % 1015,4 hPa 0,0 l/m 0 min 0 min 0 W/m 6,4 km/h (2 Bft) 100,00 %
06.06.2022 22:58 15,1 C 13,9 C 11,1 C 86 % 1015,3 hPa 0,0 l/m 0 min 0 min 0 W/m 3,2 km/h (1 Bft) 100,00 %
06.06.2022 23:00 15,1 C 13,9 C 11,1 C 86 % 1015,3 hPa 0,0 l/m 0 min 0 min 0 W/m 3,2 km/h (1 Bft) 100,00 %
06.06.2022 23:02 15,0 C 13,9 C 11,1 C 86 % 1015,2 hPa 0,0 l/m 0 min 0 min 0 W/m 3,2 km/h (1 Bft) 100,00 %
06.06.2022 23:04 15,0 C 13,9 C 11,1 C 86 % 1015,1 hPa 0,0 l/m 0 min 0 min 0 W/m 0,0 km/h (0 Bft) 95,65 %
06.06.2022 23:06 15,0 C 13,9 C 11,1 C 86 % 1015,2 hPa 0,0 l/m 0 min 0 min 0 W/m 0,0 km/h (0 Bft) 97,87 %
06.06.2022 23:08 15,0 C 13,9 C 10,6 C 86 % 1015,2 hPa 0,0 l/m 0 min 0 min 0 W/m 3,2 km/h (1 Bft) 97,87 %
06.06.2022 23:10 14,9 C 13,9 C 10,6 C 86 % 1015,2 hPa 0,0 l/m 0 min 0 min 0 W/m 3,2 km/h (1 Bft) 97,87 %
06.06.2022 23:12 14,9 C 13,9 C 10,6 C 86 % 1015,2 hPa 0,0 l/m 0 min 0 min 0 W/m 0,0 km/h (0 Bft) 95,74 %
06.06.2022 23:14 14,9 C 13,9 C 10,6 C 86 % 1015,1 hPa 0,0 l/m 0 min 0 min 0 W/m 0,0 km/h (0 Bft) 97,87 %
06.06.2022 23:16 14,9 C 13,9 C 10,6 C 86 % 1015,1 hPa 0,0 l/m 0 min 0 min 0 W/m 3,2 km/h (1 Bft) 95,65 %
06.06.2022 23:18 14,9 C 13,9 C 10,6 C 86 % 1015,1 hPa 0,0 l/m 0 min 0 min 0 W/m 0,0 km/h (0 Bft) 97,87 %
06.06.2022 23:20 14,8 C 13,9 C 10,6 C 87 % 1015,1 hPa 0,0 l/m 0 min 0 min 0 W/m 0,0 km/h (0 Bft) 97,87 %
06.06.2022 23:22 14,8 C 13,9 C 10,6 C 87 % 1015,0 hPa 0,0 l/m 0 min 0 min 0 W/m 0,0 km/h (0 Bft) 97,87 %
06.06.2022 23:24 14,8 C 13,9 C 10,6 C 87 % 1015,0 hPa 0,0 l/m 0 min 0 min 0 W/m 0,0 km/h (0 Bft) 95,74 %
06.06.2022 23:26 14,8 C 13,9 C 10,6 C 87 % 1015,1 hPa 0,0 l/m 0 min 0 min 0 W/m 0,0 km/h (0 Bft) 95,74 %
06.06.2022 23:28 14,8 C 13,9 C 10,6 C 87 % 1015,1 hPa 0,0 l/m 0 min 0 min 0 W/m 0,0 km/h (0 Bft) 100,00 %
06.06.2022 23:30 14,8 C 13,9 C 10,6 C 87 % 1015,1 hPa 0,0 l/m 0 min 0 min 0 W/m 3,2 km/h (1 Bft) 97,87 %
06.06.2022 23:32 14,8 C 13,9 C 10,6 C 88 % 1015,1 hPa 0,0 l/m 0 min 0 min 0 W/m 3,2 km/h (1 Bft) 97,87 %
06.06.2022 23:34 14,8 C 13,9 C 10,6 C 87 % 1015,1 hPa 0,0 l/m 0 min 0 min 0 W/m 3,2 km/h (1 Bft) 97,87 %
06.06.2022 23:36 14,7 C 13,9 C 10,6 C 87 % 1015,0 hPa 0,0 l/m 0 min 0 min 0 W/m 0,0 km/h (0 Bft) 91,49 %
06.06.2022 23:38 14,7 C 13,9 C 10,6 C 88 % 1015,0 hPa 0,0 l/m 0 min 0 min 0 W/m 0,0 km/h (0 Bft) 95,74 %
06.06.2022 23:40 14,7 C 13,9 C 10,6 C 88 % 1014,9 hPa 0,0 l/m 0 min 0 min 0 W/m 0,0 km/h (0 Bft) 95,65 %
06.06.2022 23:42 14,7 C 13,9 C 10,6 C 88 % 1015,0 hPa 0,0 l/m 0 min 0 min 0 W/m 0,0 km/h (0 Bft) 95,74 %
06.06.2022 23:44 14,7 C 13,9 C 10,6 C 88 % 1015,0 hPa 0,0 l/m 0 min 0 min 0 W/m 0,0 km/h (0 Bft) 97,87 %
06.06.2022 23:46 14,7 C 13,9 C 10,6 C 88 % 1015,0 hPa 0,0 l/m 0 min 0 min 0 W/m 3,2 km/h (1 Bft) 93,62 %
06.06.2022 23:48 14,7 C 13,9 C 10,6 C 88 % 1015,0 hPa 0,0 l/m 0 min 0 min 0 W/m 3,2 km/h (1 Bft) 93,62 %
06.06.2022 23:50 14,6 C 13,3 C 10,6 C 88 % 1015,0 hPa 0,0 l/m 0 min 0 min 0 W/m 0,0 km/h (0 Bft) 93,62 %
06.06.2022 23:52 14,6 C 13,3 C 10,6 C 88 % 1015,0 hPa 0,0 l/m 0 min 0 min 0 W/m 0,0 km/h (0 Bft) 93,48 %
06.06.2022 23:54 14,6 C 13,3 C 10,6 C 88 % 1015,0 hPa 0,0 l/m 0 min 0 min 0 W/m 0,0 km/h (0 Bft) 95,74 %
06.06.2022 23:56 14,6 C 13,3 C 10,6 C 88 % 1015,0 hPa 0,0 l/m 0 min 0 min 0 W/m 0,0 km/h (0 Bft) 89,36 %
06.06.2022 23:58 14,6 C 13,3 C 10,6 C 88 % 1015,0 hPa 0,0 l/m 0 min 0 min 0 W/m 3,2 km/h (1 Bft) 95,74 %
_ Min-Zeit 23:50 23:50 12:58 15:28 00:02 - - - - 03:44 23:56
Minimum _ 14,6 C 13,3 C 10,6 C 55 % 1013,7 hPa - - - - 0,0 km/h (0 Bft) 89,36 %
_ Max-Zeit 15:26 15:20 12:26 00:24 22:36 12:56 15:52 03:00 12:32 10:14 00:07
Maximum _ 22,3 C 24,4 C 24,4 C 98 % 1015,5 hPa 0,4 l/m 4 min 2 min 1172 W/m 54,7 km/h
S-SW (7 Bft)
100,00 %
Durchschnitt _ 17,6 C 17,7 C 14,3 C 78 % 1014,6 hPa #1,0 l/m #7:00 h #18 min. 380 W/m 15,8 km/h (3 Bft) 97,67 %
© 2022 W. Hausmann